| time (UTC) | temp C | wind direction | speed KPH | gust KPH | rain 1hr cm | rain 24hr cm | rain mn cm | humidity % | barometer mb |
| 20260503200320 | 20 | 290 | 8.0 | 19.3 | 0.00 | 0.00 | 0.00 | 41 | 1018.5 |
| 20260503200248 | 20 | 305 | 6.4 | 19.3 | 0.00 | 0.00 | 0.00 | 40 | 1018.5 |
| 20260503200119 | 20 | 281 | 9.7 | 19.3 | 0.00 | 0.00 | 0.00 | 42 | 1018.5 |
| 20260503200046 | 20 | 309 | 11.3 | 19.3 | 0.00 | 0.00 | 0.00 | 40 | 1018.5 |
| 20260503195933 | 20 | 281 | 11.3 | 19.3 | 0.00 | 0.00 | 0.00 | 42 | 1018.5 |
| 20260503195818 | 20 | 294 | 11.3 | 19.3 | 0.00 | 0.00 | 0.00 | 42 | 1018.5 |
| 20260503195726 | 20 | 265 | 11.3 | 19.3 | 0.00 | 0.00 | 0.00 | 40 | 1018.5 |
| 20260503195613 | 20 | 274 | 8.0 | 19.3 | 0.00 | 0.00 | 0.00 | 42 | 1018.6 |
| 20260503195521 | 20 | 281 | 6.4 | 19.3 | 0.00 | 0.00 | 0.00 | 42 | 1018.6 |
| 20260503195433 | 20 | 249 | 4.8 | 19.3 | 0.00 | 0.00 | 0.00 | 44 | 1018.6 |
| 20260503195340 | 20 | 236 | 6.4 | 19.3 | 0.00 | 0.00 | 0.00 | 43 | 1018.6 |
| 20260503195227 | 20 | 294 | 8.0 | 19.3 | 0.00 | 0.00 | 0.00 | 41 | 1018.7 |
| 20260503195115 | 20 | 232 | 8.0 | 19.3 | 0.00 | 0.00 | 0.00 | 42 | 1018.6 |
| 20260503195046 | 20 | 231 | 6.4 | 19.3 | 0.00 | 0.00 | 0.00 | 42 | 1018.6 |
| 20260503194823 | 20 | 311 | 8.0 | 19.3 | 0.00 | 0.00 | 0.00 | 41 | 1018.7 |
| 20260503194711 | 20 | 205 | 9.7 | 19.3 | 0.00 | 0.00 | 0.00 | 42 | 1018.7 |
| 20260503194617 | 20 | 248 | 9.7 | 19.3 | 0.00 | 0.00 | 0.00 | 42 | 1018.7 |
| 20260503194525 | 20 | 215 | 11.3 | 19.3 | 0.00 | 0.00 | 0.00 | 44 | 1018.7 |
| 20260503194412 | 20 | 289 | 8.0 | 19.3 | 0.00 | 0.00 | 0.00 | 42 | 1018.8 |
| 20260503194340 | 20 | 275 | 4.8 | 16.1 | 0.00 | 0.00 | 0.00 | 42 | 1018.8 |
| 20260503194211 | 20 | 186 | 8.0 | 16.1 | 0.00 | 0.00 | 0.00 | 40 | 1018.8 |
| 20260503194118 | 20 | 212 | 12.9 | 16.1 | 0.00 | 0.00 | 0.00 | 39 | 1018.9 |
| 20260503194026 | 20 | 182 | 11.3 | 16.1 | 0.00 | 0.00 | 0.00 | 39 | 1018.9 |
| 20260503193915 | 20 | 115 | 11.3 | 16.1 | 0.00 | 0.00 | 0.00 | 41 | 1018.9 |
| 20260503193842 | 20 | 188 | 8.0 | 24.1 | 0.00 | 0.00 | 0.00 | 39 | 1018.9 |
| 20260503193748 | 20 | 208 | 8.0 | 24.1 | 0.00 | 0.00 | 0.00 | 39 | 1018.9 |
| 20260503193620 | 20 | 240 | 9.7 | 24.1 | 0.00 | 0.00 | 0.00 | 41 | 1018.9 |
| 20260503193549 | 20 | 278 | 9.7 | 24.1 | 0.00 | 0.00 | 0.00 | 43 | 1018.9 |
| 20260503193323 | 20 | 261 | 11.3 | 24.1 | 0.00 | 0.00 | 0.00 | 44 | 1019.0 |
| 20260503193210 | 20 | 282 | 12.9 | 24.1 | 0.00 | 0.00 | 0.00 | 45 | 1019.0 |
| 20260503193116 | 20 | 269 | 12.9 | 24.1 | 0.00 | 0.00 | 0.00 | 43 | 1019.0 |
| 20260503193028 | 20 | 287 | 12.9 | 24.1 | 0.00 | 0.00 | 0.00 | 44 | 1019.0 |
| 20260503192916 | 20 | 269 | 6.4 | 17.7 | 0.00 | 0.00 | 0.00 | 43 | 1019.1 |
| 20260503192823 | 20 | 269 | 6.4 | 17.7 | 0.00 | 0.00 | 0.00 | 42 | 1019.1 |
| 20260503192711 | 20 | 257 | 8.0 | 17.7 | 0.00 | 0.00 | 0.00 | 42 | 1019.1 |
| 20260503192617 | 20 | 196 | 8.0 | 22.5 | 0.00 | 0.00 | 0.00 | 43 | 1019.1 |
| 20260503192509 | 20 | 213 | 8.0 | 22.5 | 0.00 | 0.00 | 0.00 | 43 | 1019.1 |
| 20260503192416 | 20 | 231 | 11.3 | 22.5 | 0.00 | 0.00 | 0.00 | 43 | 1019.1 |
| 20260503192325 | 20 | 227 | 12.9 | 22.5 | 0.00 | 0.00 | 0.00 | 43 | 1019.1 |
| 20260503192212 | 20 | 196 | 9.7 | 22.5 | 0.00 | 0.00 | 0.00 | 43 | 1019.2 |
| 20260503192140 | 20 | 212 | 9.7 | 22.5 | 0.00 | 0.00 | 0.00 | 44 | 1019.1 |
| 20260503192052 | 20 | 225 | 9.7 | 22.5 | 0.00 | 0.00 | 0.00 | 44 | 1019.1 |
| 20260503191825 | 20 | 298 | 8.0 | 22.5 | 0.00 | 0.00 | 0.00 | 45 | 1019.2 |
| 20260503191713 | 19 | 187 | 4.8 | 16.1 | 0.00 | 0.00 | 0.00 | 45 | 1019.2 |
| 20260503191622 | 19 | 252 | 6.4 | 16.1 | 0.00 | 0.00 | 0.00 | 46 | 1019.2 |
| 20260503191509 | 19 | 234 | 9.7 | 16.1 | 0.00 | 0.00 | 0.00 | 43 | 1019.4 |
| 20260503191436 | 19 | 201 | 9.7 | 16.1 | 0.00 | 0.00 | 0.00 | 43 | 1019.3 |
| 20260503191328 | 20 | 197 | 9.7 | 17.7 | 0.00 | 0.00 | 0.00 | 44 | 1019.3 |
| 20260503191215 | 20 | 196 | 11.3 | 17.7 | 0.00 | 0.00 | 0.00 | 43 | 1019.4 |
| 20260503191122 | 20 | 190 | 11.3 | 17.7 | 0.00 | 0.00 | 0.00 | 44 | 1019.4 |
| 20260503191010 | 20 | 215 | 9.7 | 19.3 | 0.00 | 0.00 | 0.00 | 43 | 1019.4 |
| 20260503190918 | 20 | 216 | 8.0 | 19.3 | 0.00 | 0.00 | 0.00 | 45 | 1019.5 |
| 20260503190825 | 20 | 236 | 9.7 | 19.3 | 0.00 | 0.00 | 0.00 | 45 | 1019.5 |
| 20260503190715 | 20 | 325 | 8.0 | 19.3 | 0.00 | 0.00 | 0.00 | 46 | 1019.4 |
| 20260503190641 | 20 | 249 | 8.0 | 19.3 | 0.00 | 0.00 | 0.00 | 48 | 1019.4 |
| 20260503190550 | 20 | 273 | 6.4 | 19.3 | 0.00 | 0.00 | 0.00 | 45 | 1019.5 |
| 20260503190325 | 20 | 237 | 9.7 | 19.3 | 0.00 | 0.00 | 0.00 | 45 | 1019.5 |
| 20260503190217 | 20 | 197 | 8.0 | 20.9 | 0.00 | 0.00 | 0.00 | 46 | 1019.5 |
| 20260503190145 | 20 | 173 | 8.0 | 19.3 | 0.00 | 0.00 | 0.00 | 47 | 1019.5 |
| 20260503190030 | 20 | 272 | 11.3 | 19.3 | 0.00 | 0.00 | 0.00 | 49 | 1019.6 |
| 20260503185938 | 20 | 155 | 11.3 | 19.3 | 0.00 | 0.00 | 0.00 | 48 | 1019.5 |
| 20260503185825 | 20 | 192 | 9.7 | 19.3 | 0.00 | 0.00 | 0.00 | 45 | 1019.5 |
| 20260503185734 | 20 | 217 | 6.4 | 17.7 | 0.00 | 0.00 | 0.00 | 45 | 1019.5 |
| 20260503185621 | 20 | 162 | 8.0 | 17.7 | 0.00 | 0.00 | 0.00 | 46 | 1019.5 |
| 20260503185547 | 20 | 201 | 9.7 | 17.7 | 0.00 | 0.00 | 0.00 | 45 | 1019.5 |
| 20260503185416 | 20 | 266 | 9.7 | 17.7 | 0.00 | 0.00 | 0.00 | 47 | 1019.6 |
| 20260503185323 | 20 | 151 | 8.0 | 14.5 | 0.00 | 0.00 | 0.00 | 46 | 1019.6 |
| 20260503185230 | 20 | 180 | 8.0 | 14.5 | 0.00 | 0.00 | 0.00 | 45 | 1019.6 |
| 20260503185116 | 20 | 293 | 6.4 | 14.5 | 0.00 | 0.00 | 0.00 | 46 | 1019.6 |
| 20260503185047 | 19 | 296 | 4.8 | 14.5 | 0.00 | 0.00 | 0.00 | 46 | 1019.6 |
| 20260503184841 | 19 | 355 | 6.4 | 14.5 | 0.00 | 0.00 | 0.00 | 46 | 1019.6 |
| 20260503184710 | 19 | 333 | 8.0 | 14.5 | 0.00 | 0.00 | 0.00 | 45 | 1019.5 |
| 20260503184618 | 19 | 264 | 6.4 | 14.5 | 0.00 | 0.00 | 0.00 | 45 | 1019.6 |
| 20260503184546 | 19 | 278 | 3.2 | 16.1 | 0.00 | 0.00 | 0.00 | 47 | 1019.6 |
| 20260503184432 | 19 | 186 | 3.2 | 16.1 | 0.00 | 0.00 | 0.00 | 42 | 1019.6 |
| 20260503184341 | 19 | 211 | 3.2 | 16.1 | 0.00 | 0.00 | 0.00 | 46 | 1019.6 |
| 20260503184227 | 19 | 342 | 3.2 | 16.1 | 0.00 | 0.00 | 0.00 | 44 | 1019.6 |
| 20260503184118 | 19 | 281 | 1.6 | 16.1 | 0.00 | 0.00 | 0.00 | 42 | 1019.6 |
| 20260503184025 | 19 | 333 | 3.2 | 16.1 | 0.00 | 0.00 | 0.00 | 42 | 1019.6 |
| 20260503183913 | 19 | 333 | 6.4 | 16.1 | 0.00 | 0.00 | 0.00 | 44 | 1019.7 |
| 20260503183821 | 19 | 319 | 8.0 | 16.1 | 0.00 | 0.00 | 0.00 | 43 | 1019.7 |
| 20260503183727 | 19 | 299 | 8.0 | 16.1 | 0.00 | 0.00 | 0.00 | 43 | 1019.7 |
| 20260503183654 | 19 | 286 | 4.8 | 16.1 | 0.00 | 0.00 | 0.00 | 43 | 1019.7 |
| 20260503183609 | 19 | 312 | 3.2 | 19.3 | 0.00 | 0.00 | 0.00 | 44 | 1019.7 |
| 20260503183321 | 19 | 311 | 3.2 | 19.3 | 0.00 | 0.00 | 0.00 | 45 | 1019.7 |
| 20260503183228 | 19 | 355 | 4.8 | 19.3 | 0.00 | 0.00 | 0.00 | 44 | 1019.7 |
| 20260503183115 | 19 | 325 | 9.7 | 19.3 | 0.00 | 0.00 | 0.00 | 44 | 1019.8 |
| 20260503183023 | 19 | 314 | 11.3 | 19.3 | 0.00 | 0.00 | 0.00 | 44 | 1019.8 |
| 20260503182917 | 19 | 318 | 9.7 | 19.3 | 0.00 | 0.00 | 0.00 | 45 | 1019.8 |
| 20260503182824 | 19 | 302 | 8.0 | 19.3 | 0.00 | 0.00 | 0.00 | 46 | 1019.8 |
| 20260503182710 | 19 | 271 | 11.3 | 19.3 | 0.00 | 0.00 | 0.00 | 46 | 1019.8 |
| 20260503182618 | 19 | 293 | 11.3 | 19.3 | 0.00 | 0.00 | 0.00 | 46 | 1019.8 |
| 20260503182527 | 18 | 297 | 9.7 | 19.3 | 0.00 | 0.00 | 0.00 | 48 | 1019.8 |
| 20260503182435 | 18 | 221 | 11.3 | 19.3 | 0.00 | 0.00 | 0.00 | 47 | 1019.9 |
| 20260503182325 | 18 | 278 | 11.3 | 19.3 | 0.00 | 0.00 | 0.00 | 47 | 1019.9 |
| 20260503182213 | 18 | 286 | 4.8 | 16.1 | 0.00 | 0.00 | 0.00 | 48 | 1019.8 |
| 20260503182120 | 18 | 326 | 4.8 | 16.1 | 0.00 | 0.00 | 0.00 | 49 | 1019.8 |
| 20260503182051 | 18 | 287 | 6.4 | 16.1 | 0.00 | 0.00 | 0.00 | 46 | 1019.8 |
| 20260503181844 | 18 | 240 | 11.3 | 16.1 | 0.00 | 0.00 | 0.00 | 47 | 1019.8 |
| 20260503181713 | 18 | 211 | 9.7 | 20.9 | 0.00 | 0.00 | 0.00 | 48 | 1019.9 |
| 20260503181620 | 18 | 217 | 6.4 | 20.9 | 0.00 | 0.00 | 0.00 | 48 | 1019.9 |
| 20260503181528 | 18 | 243 | 3.2 | 20.9 | 0.00 | 0.00 | 0.00 | 47 | 1019.8 |
| 20260503181416 | 18 | 315 | 4.8 | 20.9 | 0.00 | 0.00 | 0.00 | 47 | 1019.9 |
| 20260503181324 | 18 | 321 | 4.8 | 20.9 | 0.00 | 0.00 | 0.00 | 48 | 1019.9 |
| 20260503181216 | 18 | 336 | 8.0 | 20.9 | 0.00 | 0.00 | 0.00 | 46 | 1019.8 |
| 20260503181124 | 18 | 312 | 9.7 | 20.9 | 0.00 | 0.00 | 0.00 | 47 | 1019.8 |
| 20260503181010 | 18 | 306 | 9.7 | 20.9 | 0.00 | 0.00 | 0.00 | 48 | 1019.9 |
| 20260503180919 | 18 | 279 | 4.8 | 20.9 | 0.00 | 0.00 | 0.00 | 46 | 1019.9 |
| 20260503180825 | 18 | 195 | 3.2 | 8.0 | 0.00 | 0.00 | 0.00 | 44 | 1019.9 |
| 20260503180734 | 18 | 234 | 3.2 | 8.0 | 0.00 | 0.00 | 0.00 | 45 | 1019.9 |
| 20260503180640 | 18 | 271 | 3.2 | 12.9 | 0.00 | 0.00 | 0.00 | 45 | 1019.9 |
| 20260503180554 | 18 | 101 | 1.6 | 12.9 | 0.00 | 0.00 | 0.00 | 45 | 1019.9 |
| 20260503180327 | 18 | 88 | 0.0 | 16.1 | 0.00 | 0.00 | 0.00 | 45 | 1020.0 |
| 20260503180214 | 18 | 252 | 1.6 | 16.1 | 0.00 | 0.00 | 0.00 | 46 | 1020.1 |
| 20260503180141 | 18 | 252 | 4.8 | 16.1 | 0.00 | 0.00 | 0.00 | 47 | 1020.1 |
| 20260503180011 | 18 | 256 | 4.8 | 22.5 | 0.00 | 0.00 | 0.00 | 46 | 1020.0 |
| 20260503175919 | 18 | 209 | 4.8 | 22.5 | 0.00 | 0.00 | 0.00 | 45 | 1020.0 |
| 20260503175826 | 18 | 284 | 4.8 | 22.5 | 0.00 | 0.00 | 0.00 | 46 | 1020.1 |
| 20260503175713 | 18 | 292 | 6.4 | 22.5 | 0.00 | 0.00 | 0.00 | 45 | 1020.0 |
| 20260503175621 | 18 | 165 | 9.7 | 22.5 | 0.00 | 0.00 | 0.00 | 46 | 1020.0 |
| 20260503175509 | 18 | 286 | 11.3 | 22.5 | 0.00 | 0.00 | 0.00 | 48 | 1020.0 |
| 20260503175422 | 18 | 295 | 9.7 | 22.5 | 0.00 | 0.00 | 0.00 | 47 | 1020.0 |
| 20260503175309 | 18 | 245 | 11.3 | 22.5 | 0.00 | 0.00 | 0.00 | 46 | 1020.0 |
| 20260503175218 | 18 | 258 | 9.7 | 22.5 | 0.00 | 0.00 | 0.00 | 46 | 1020.1 |
| 20260503175144 | 18 | 261 | 8.0 | 22.5 | 0.00 | 0.00 | 0.00 | 46 | 1020.1 |
| 20260503175114 | 18 | 200 | 8.0 | 20.9 | 0.00 | 0.00 | 0.00 | 44 | 1020.1 |
| 20260503174811 | 18 | 224 | 4.8 | 17.7 | 0.00 | 0.00 | 0.00 | 47 | 1020.2 |
| 20260503174717 | 18 | 219 | 3.2 | 17.7 | 0.00 | 0.00 | 0.00 | 49 | 1020.1 |
| 20260503174625 | 18 | 355 | 4.8 | 17.7 | 0.00 | 0.00 | 0.00 | 49 | 1020.1 |
| 20260503174513 | 18 | 355 | 8.0 | 17.7 | 0.00 | 0.00 | 0.00 | 48 | 1020.1 |
| 20260503174420 | 18 | 321 | 9.7 | 17.7 | 0.00 | 0.00 | 0.00 | 46 | 1020.1 |
| 20260503174312 | 18 | 279 | 8.0 | 17.7 | 0.00 | 0.00 | 0.00 | 47 | 1020.2 |
| 20260503174219 | 18 | 234 | 8.0 | 14.5 | 0.00 | 0.00 | 0.00 | 47 | 1020.2 |
| 20260503174127 | 18 | 183 | 8.0 | 14.5 | 0.00 | 0.00 | 0.00 | 46 | 1020.2 |
| 20260503174013 | 18 | 162 | 6.4 | 16.1 | 0.00 | 0.00 | 0.00 | 46 | 1020.2 |
| 20260503173922 | 18 | 269 | 8.0 | 16.1 | 0.00 | 0.00 | 0.00 | 47 | 1020.2 |
| 20260503173814 | 18 | 234 | 9.7 | 16.1 | 0.00 | 0.00 | 0.00 | 47 | 1020.3 |
| 20260503173722 | 18 | 267 | 8.0 | 16.1 | 0.00 | 0.00 | 0.00 | 48 | 1020.3 |
| 20260503173629 | 18 | 261 | 8.0 | 14.5 | 0.00 | 0.00 | 0.00 | 50 | 1020.3 |
| 20260503173559 | 18 | 274 | 8.0 | 12.9 | 0.00 | 0.00 | 0.00 | 47 | 1020.2 |
| 20260503173313 | 18 | 219 | 6.4 | 12.9 | 0.00 | 0.00 | 0.00 | 49 | 1020.3 |
| 20260503173226 | 18 | 213 | 4.8 | 12.9 | 0.00 | 0.00 | 0.00 | 49 | 1020.3 |
| 20260503173115 | 18 | 306 | 4.8 | 12.9 | 0.00 | 0.00 | 0.00 | 47 | 1020.3 |
| 20260503173023 | 18 | 315 | 3.2 | 12.9 | 0.00 | 0.00 | 0.00 | 47 | 1020.3 |
| 20260503172930 | 18 | 280 | 3.2 | 12.9 | 0.00 | 0.00 | 0.00 | 46 | 1020.4 |
| 20260503172816 | 18 | 195 | 3.2 | 12.9 | 0.00 | 0.00 | 0.00 | 46 | 1020.4 |
| 20260503172724 | 18 | 182 | 3.2 | 12.9 | 0.00 | 0.00 | 0.00 | 47 | 1020.4 |
| 20260503172615 | 18 | 211 | 6.4 | 12.9 | 0.00 | 0.00 | 0.00 | 49 | 1020.5 |
| 20260503172524 | 18 | 317 | 8.0 | 12.9 | 0.00 | 0.00 | 0.00 | 48 | 1020.5 |
| 20260503172412 | 18 | 323 | 4.8 | 14.5 | 0.00 | 0.00 | 0.00 | 50 | 1020.5 |
| 20260503172339 | 18 | 321 | 4.8 | 14.5 | 0.00 | 0.00 | 0.00 | 50 | 1020.5 |
| 20260503172226 | 18 | 280 | 4.8 | 14.5 | 0.00 | 0.00 | 0.00 | 49 | 1020.5 |
| 20260503172134 | 18 | 55 | 3.2 | 14.5 | 0.00 | 0.00 | 0.00 | 46 | 1020.5 |
| 20260503172108 | 18 | 16 | 4.8 | 14.5 | 0.00 | 0.00 | 0.00 | 48 | 1020.6 |
| 20260503171821 | 18 | 292 | 6.4 | 14.5 | 0.00 | 0.00 | 0.00 | 48 | 1020.6 |
| 20260503171709 | 18 | 290 | 8.0 | 14.5 | 0.00 | 0.00 | 0.00 | 49 | 1020.7 |
| 20260503171635 | 18 | 296 | 6.4 | 14.5 | 0.00 | 0.00 | 0.00 | 48 | 1020.7 |
| 20260503171522 | 18 | 242 | 6.4 | 14.5 | 0.00 | 0.00 | 0.00 | 49 | 1020.7 |
| 20260503171414 | 18 | 5 | 4.8 | 12.9 | 0.00 | 0.00 | 0.00 | 50 | 1020.6 |
| 20260503171322 | 18 | 14 | 3.2 | 12.9 | 0.00 | 0.00 | 0.00 | 47 | 1020.6 |
| 20260503171209 | 18 | 22 | 4.8 | 12.9 | 0.00 | 0.00 | 0.00 | 47 | 1020.6 |
| 20260503171117 | 18 | 277 | 8.0 | 12.9 | 0.00 | 0.00 | 0.00 | 48 | 1020.7 |
| 20260503171044 | 18 | 290 | 6.4 | 12.9 | 0.00 | 0.00 | 0.00 | 48 | 1020.7 |
| 20260503170914 | 18 | 271 | 4.8 | 14.5 | 0.00 | 0.00 | 0.00 | 47 | 1020.6 |
| 20260503170822 | 18 | 277 | 6.4 | 14.5 | 0.00 | 0.00 | 0.00 | 48 | 1020.6 |
| 20260503170730 | 18 | 279 | 6.4 | 14.5 | 0.00 | 0.00 | 0.00 | 49 | 1020.7 |
| 20260503170617 | 18 | 266 | 3.2 | 14.5 | 0.00 | 0.00 | 0.00 | 46 | 1020.7 |
| 20260503170548 | 18 | 285 | 3.2 | 14.5 | 0.00 | 0.00 | 0.00 | 46 | 1020.7 |
| 20260503170325 | 18 | 335 | 6.4 | 14.5 | 0.00 | 0.00 | 0.00 | 46 | 1020.7 |
| 20260503170234 | 18 | 273 | 8.0 | 14.5 | 0.00 | 0.00 | 0.00 | 48 | 1020.8 |
| 20260503170120 | 18 | 312 | 8.0 | 12.9 | 0.00 | 0.00 | 0.00 | 48 | 1020.8 |
| 20260503160217 | 16 | 121 | 4.8 | 12.9 | 0.00 | 0.00 | 0.00 | 54 | 1021.1 |
| 20260503160125 | 16 | 107 | 3.2 | 11.3 | 0.00 | 0.00 | 0.00 | 52 | 1021.1 |
| 20260503150928 | 15 | 230 | 1.6 | 6.4 | 0.00 | 0.00 | 0.00 | 58 | 1021.3 |
| 20260503150816 | 15 | 189 | 1.6 | 6.4 | 0.00 | 0.00 | 0.00 | 57 | 1021.3 |
| 20260503150723 | 15 | 28 | 1.6 | 8.0 | 0.00 | 0.00 | 0.00 | 57 | 1021.3 |
| 20260503150614 | 15 | 28 | 3.2 | 8.0 | 0.00 | 0.00 | 0.00 | 58 | 1021.3 |
| 20260503150546 | 15 | 5 | 3.2 | 8.0 | 0.00 | 0.00 | 0.00 | 55 | 1021.3 |
| 20260503150320 | 15 | 350 | 3.2 | 8.0 | 0.00 | 0.00 | 0.00 | 56 | 1021.3 |
| 20260503150226 | 15 | 350 | 3.2 | 8.0 | 0.00 | 0.00 | 0.00 | 55 | 1021.3 |
| 20260503150118 | 15 | 37 | 3.2 | 8.0 | 0.00 | 0.00 | 0.00 | 56 | 1021.3 |
| 20260503140223 | 13 | 170 | 1.6 | 8.0 | 0.00 | 0.00 | 0.00 | 71 | 1021.2 |
| 20260503140110 | 13 | 333 | 1.6 | 8.0 | 0.00 | 0.00 | 0.00 | 73 | 1021.2 |
| 20260503131319 | 11 | 318 | 1.6 | 6.4 | 0.00 | 0.00 | 0.00 | 79 | 1020.9 |
| 20260503131226 | 11 | 42 | 1.6 | 6.4 | 0.00 | 0.00 | 0.00 | 79 | 1021.0 |
| 20260503131114 | 11 | 91 | 1.6 | 6.4 | 0.00 | 0.00 | 0.00 | 80 | 1021.0 |
| 20260503131042 | 11 | 73 | 0.0 | 6.4 | 0.00 | 0.00 | 0.00 | 79 | 1021.0 |
| 20260503130908 | 11 | 78 | 1.6 | 6.4 | 0.00 | 0.00 | 0.00 | 80 | 1021.0 |
| 20260503130816 | 11 | 72 | 3.2 | 6.4 | 0.00 | 0.00 | 0.00 | 80 | 1021.0 |
| 20260503130728 | 11 | 355 | 4.8 | 6.4 | 0.00 | 0.00 | 0.00 | 81 | 1021.0 |
| 20260503130635 | 11 | 36 | 4.8 | 6.4 | 0.00 | 0.00 | 0.00 | 81 | 1021.0 |
| 20260503130606 | 11 | 24 | 4.8 | 6.4 | 0.00 | 0.00 | 0.00 | 81 | 1021.0 |
| 20260503130318 | 11 | 44 | 3.2 | 6.4 | 0.00 | 0.00 | 0.00 | 82 | 1021.0 |
| 20260503130225 | 11 | 23 | 1.6 | 6.4 | 0.00 | 0.00 | 0.00 | 82 | 1021.0 |
| 20260503130117 | 11 | 67 | 1.6 | 6.4 | 0.00 | 0.00 | 0.00 | 82 | 1021.0 |
| 20260503120210 | 6 | 338 | 1.6 | 3.2 | 0.00 | 0.00 | 0.00 | 93 | 1020.6 |
| 20260503120119 | 6 | 347 | 0.0 | 3.2 | 0.00 | 0.00 | 0.00 | 93 | 1020.6 |
| 20260503110815 | 6 | 337 | 3.2 | 4.8 | 0.00 | 0.00 | 0.00 | 91 | 1019.9 |
| 20260503110742 | 6 | 333 | 1.6 | 4.8 | 0.00 | 0.00 | 0.00 | 91 | 1019.9 |
| 20260503110629 | 6 | 333 | 0.0 | 3.2 | 0.00 | 0.00 | 0.00 | 91 | 1019.9 |
| 20260503110559 | 6 | 326 | 0.0 | 0.0 | 0.00 | 0.00 | 0.00 | 91 | 1020.0 |
| 20260503110311 | 6 | 338 | 0.0 | 0.0 | 0.00 | 0.00 | 0.00 | 91 | 1019.9 |
| 20260503110217 | 6 | 338 | 0.0 | 0.0 | 0.00 | 0.00 | 0.00 | 91 | 1019.9 |
| 20260503110109 | 6 | 338 | 0.0 | 0.0 | 0.00 | 0.00 | 0.00 | 91 | 1019.9 |
| 20260503100225 | 6 | 360 | 1.6 | 8.0 | 0.00 | 0.00 | 0.00 | 91 | 1019.5 |
| 20260503100112 | 6 | 360 | 0.0 | 8.0 | 0.00 | 0.00 | 0.00 | 91 | 1019.6 |
| 20260503090347 | 7 | 26 | 3.2 | 9.7 | 0.00 | 0.00 | 0.00 | 90 | 1019.2 |
| 20260503090211 | 7 | 13 | 4.8 | 9.7 | 0.00 | 0.00 | 0.00 | 90 | 1019.2 |
| 20260503090119 | 7 | 16 | 4.8 | 9.7 | 0.00 | 0.00 | 0.00 | 90 | 1019.2 |
| 20260503081527 | 7 | 355 | 3.2 | 8.0 | 0.00 | 0.00 | 0.00 | 88 | 1019.3 |
| 20260503081414 | 7 | 355 | 3.2 | 8.0 | 0.00 | 0.00 | 0.00 | 88 | 1019.3 |
| 20260503081341 | 7 | 348 | 4.8 | 8.0 | 0.00 | 0.00 | 0.00 | 88 | 1019.3 |
| 20260503081228 | 7 | 342 | 4.8 | 8.0 | 0.00 | 0.00 | 0.00 | 88 | 1019.4 |
| 20260503081116 | 7 | 344 | 4.8 | 8.0 | 0.00 | 0.00 | 0.00 | 88 | 1019.3 |
| 20260503081027 | 7 | 348 | 4.8 | 8.0 | 0.00 | 0.00 | 0.00 | 88 | 1019.3 |
| 20260503080934 | 7 | 340 | 3.2 | 8.0 | 0.00 | 0.00 | 0.00 | 88 | 1019.3 |
| 20260503080821 | 7 | 349 | 4.8 | 8.0 | 0.00 | 0.00 | 0.00 | 88 | 1019.3 |
| 20260503080728 | 7 | 355 | 4.8 | 8.0 | 0.00 | 0.00 | 0.00 | 88 | 1019.2 |
| 20260503080635 | 7 | 340 | 4.8 | 8.0 | 0.00 | 0.00 | 0.00 | 88 | 1019.2 |
| 20260503080610 | 7 | 344 | 4.8 | 8.0 | 0.00 | 0.00 | 0.00 | 88 | 1019.3 |
| 20260503080343 | 7 | 348 | 4.8 | 8.0 | 0.00 | 0.00 | 0.00 | 88 | 1019.2 |
| 20260503080209 | 7 | 336 | 4.8 | 8.0 | 0.00 | 0.00 | 0.00 | 88 | 1019.2 |
| 20260503080117 | 7 | 346 | 4.8 | 8.0 | 0.00 | 0.00 | 0.00 | 88 | 1019.1 |
| 20260503072914 | 7 | 343 | 3.2 | 6.4 | 0.00 | 0.00 | 0.00 | 87 | 1018.8 |
| 20260503072825 | 7 | 350 | 3.2 | 6.4 | 0.00 | 0.00 | 0.00 | 86 | 1018.8 |
| 20260503072733 | 7 | 355 | 1.6 | 4.8 | 0.00 | 0.00 | 0.00 | 86 | 1018.9 |
| 20260503072619 | 7 | 344 | 1.6 | 4.8 | 0.00 | 0.00 | 0.00 | 86 | 1018.9 |
| 20260503072528 | 7 | 347 | 1.6 | 4.8 | 0.00 | 0.00 | 0.00 | 86 | 1018.8 |
| 20260503072416 | 8 | 347 | 3.2 | 4.8 | 0.00 | 0.00 | 0.00 | 86 | 1018.8 |
| 20260503072324 | 8 | 355 | 3.2 | 4.8 | 0.00 | 0.00 | 0.00 | 86 | 1018.8 |
| 20260503072215 | 8 | 360 | 1.6 | 4.8 | 0.00 | 0.00 | 0.00 | 86 | 1018.7 |
| 20260503072141 | 8 | 5 | 1.6 | 3.2 | 0.00 | 0.00 | 0.00 | 86 | 1018.7 |
| 20260503072112 | 8 | 21 | 0.0 | 3.2 | 0.00 | 0.00 | 0.00 | 86 | 1018.7 |
| 20260503071824 | 8 | 5 | 0.0 | 3.2 | 0.00 | 0.00 | 0.00 | 86 | 1018.7 |
| 20260503071715 | 8 | 5 | 0.0 | 3.2 | 0.00 | 0.00 | 0.00 | 86 | 1018.6 |
| 20260503071643 | 8 | 5 | 0.0 | 3.2 | 0.00 | 0.00 | 0.00 | 86 | 1018.6 |
| 20260503071509 | 8 | 355 | 0.0 | 4.8 | 0.00 | 0.00 | 0.00 | 86 | 1018.7 |
| 20260503071415 | 8 | 355 | 0.0 | 4.8 | 0.00 | 0.00 | 0.00 | 86 | 1018.7 |
| 20260503071323 | 8 | 346 | 0.0 | 4.8 | 0.00 | 0.00 | 0.00 | 86 | 1018.7 |
| 20260503071211 | 8 | 346 | 1.6 | 4.8 | 0.00 | 0.00 | 0.00 | 86 | 1018.7 |
| 20260503071123 | 8 | 341 | 1.6 | 4.8 | 0.00 | 0.00 | 0.00 | 85 | 1018.7 |
| 20260503071030 | 8 | 341 | 1.6 | 4.8 | 0.00 | 0.00 | 0.00 | 85 | 1018.7 |
| 20260503070918 | 8 | 360 | 1.6 | 4.8 | 0.00 | 0.00 | 0.00 | 85 | 1018.7 |
| 20260503070825 | 8 | 360 | 1.6 | 4.8 | 0.00 | 0.00 | 0.00 | 85 | 1018.7 |
| 20260503070713 | 8 | 360 | 1.6 | 6.4 | 0.00 | 0.00 | 0.00 | 85 | 1018.7 |
| 20260503070554 | 8 | 350 | 1.6 | 9.7 | 0.00 | 0.00 | 0.00 | 85 | 1018.7 |
| 20260503070328 | 8 | 348 | 0.0 | 9.7 | 0.00 | 0.00 | 0.00 | 85 | 1018.7 |
| 20260503070215 | 8 | 342 | 1.6 | 9.7 | 0.00 | 0.00 | 0.00 | 85 | 1018.7 |
| 20260503070119 | 8 | 342 | 1.6 | 9.7 | 0.00 | 0.00 | 0.00 | 85 | 1018.7 |
| 20260503060328 | 9 | 329 | 6.4 | 9.7 | 0.00 | 0.00 | 0.00 | 82 | 1018.4 |
| 20260503060220 | 9 | 13 | 6.4 | 9.7 | 0.00 | 0.00 | 0.00 | 82 | 1018.5 |
| 20260503060146 | 9 | 355 | 4.8 | 9.7 | 0.00 | 0.00 | 0.00 | 82 | 1018.5 |
| 20260503055121 | 9 | 5 | 4.8 | 12.9 | 0.00 | 0.00 | 0.00 | 81 | 1018.5 |
| 20260503054813 | 9 | 341 | 8.0 | 12.9 | 0.00 | 0.00 | 0.00 | 81 | 1018.4 |
| 20260503054739 | 9 | 17 | 8.0 | 12.9 | 0.00 | 0.00 | 0.00 | 81 | 1018.4 |
| 20260503054627 | 9 | 18 | 8.0 | 12.9 | 0.00 | 0.00 | 0.00 | 81 | 1018.5 |
| 20260503054517 | 9 | 19 | 4.8 | 12.9 | 0.00 | 0.00 | 0.00 | 81 | 1018.4 |
| 20260503054424 | 9 | 19 | 4.8 | 8.0 | 0.00 | 0.00 | 0.00 | 81 | 1018.4 |
| 20260503054310 | 9 | 19 | 6.4 | 9.7 | 0.00 | 0.00 | 0.00 | 80 | 1018.4 |
| 20260503054218 | 9 | 5 | 4.8 | 9.7 | 0.00 | 0.00 | 0.00 | 80 | 1018.4 |
| 20260503054126 | 9 | 12 | 4.8 | 9.7 | 0.00 | 0.00 | 0.00 | 80 | 1018.4 |
| 20260503054012 | 9 | 15 | 3.2 | 9.7 | 0.00 | 0.00 | 0.00 | 80 | 1018.4 |
| 20260503053939 | 9 | 360 | 3.2 | 9.7 | 0.00 | 0.00 | 0.00 | 80 | 1018.4 |
| 20260503053809 | 9 | 360 | 3.2 | 9.7 | 0.00 | 0.00 | 0.00 | 80 | 1018.4 |
| 20260503053715 | 9 | 360 | 4.8 | 9.7 | 0.00 | 0.00 | 0.00 | 80 | 1018.4 |
| 20260503053643 | 9 | 346 | 4.8 | 9.7 | 0.00 | 0.00 | 0.00 | 80 | 1018.4 |
| 20260503053552 | 9 | 334 | 6.4 | 9.7 | 0.00 | 0.00 | 0.00 | 80 | 1018.4 |
| 20260503053324 | 9 | 360 | 6.4 | 9.7 | 0.00 | 0.00 | 0.00 | 80 | 1018.3 |
| 20260503053216 | 9 | 5 | 6.4 | 9.7 | 0.00 | 0.00 | 0.00 | 80 | 1018.3 |
| 20260503053144 | 9 | 5 | 4.8 | 9.7 | 0.00 | 0.00 | 0.00 | 80 | 1018.3 |
| 20260503053010 | 9 | 5 | 4.8 | 9.7 | 0.00 | 0.00 | 0.00 | 80 | 1018.3 |
| 20260503052917 | 9 | 5 | 6.4 | 9.7 | 0.00 | 0.00 | 0.00 | 80 | 1018.4 |
| 20260503052825 | 9 | 17 | 6.4 | 9.7 | 0.00 | 0.00 | 0.00 | 80 | 1018.4 |
| 20260503052717 | 9 | 5 | 6.4 | 9.7 | 0.00 | 0.00 | 0.00 | 80 | 1018.4 |
| 20260503052645 | 9 | 5 | 6.4 | 9.7 | 0.00 | 0.00 | 0.00 | 80 | 1018.4 |
| 20260503052512 | 9 | 5 | 6.4 | 9.7 | 0.00 | 0.00 | 0.00 | 80 | 1018.4 |
| 20260503052420 | 9 | 355 | 4.8 | 9.7 | 0.00 | 0.00 | 0.00 | 80 | 1018.4 |
| 20260503052328 | 10 | 355 | 4.8 | 9.7 | 0.00 | 0.00 | 0.00 | 80 | 1018.4 |
| 20260503052215 | 10 | 5 | 4.8 | 9.7 | 0.00 | 0.00 | 0.00 | 79 | 1018.4 |
| 20260503052126 | 10 | 12 | 4.8 | 11.3 | 0.00 | 0.00 | 0.00 | 79 | 1018.4 |
| 20260503052058 | 10 | 5 | 4.8 | 11.3 | 0.00 | 0.00 | 0.00 | 79 | 1018.4 |
| 20260503051831 | 10 | 5 | 3.2 | 8.0 | 0.00 | 0.00 | 0.00 | 79 | 1018.3 |
| 20260503051716 | 10 | 19 | 3.2 | 8.0 | 0.00 | 0.00 | 0.00 | 79 | 1018.3 |
| 20260503051624 | 10 | 5 | 3.2 | 8.0 | 0.00 | 0.00 | 0.00 | 79 | 1018.3 |
| 20260503051535 | 10 | 5 | 3.2 | 8.0 | 0.00 | 0.00 | 0.00 | 79 | 1018.3 |
| 20260503051421 | 10 | 9 | 4.8 | 8.0 | 0.00 | 0.00 | 0.00 | 79 | 1018.3 |
| 20260503051309 | 10 | 355 | 4.8 | 8.0 | 0.00 | 0.00 | 0.00 | 78 | 1018.3 |
| 20260503051216 | 10 | 346 | 4.8 | 8.0 | 0.00 | 0.00 | 0.00 | 78 | 1018.3 |
| 20260503051123 | 10 | 5 | 3.2 | 8.0 | 0.00 | 0.00 | 0.00 | 78 | 1018.3 |
| 20260503051010 | 10 | 339 | 3.2 | 8.0 | 0.00 | 0.00 | 0.00 | 78 | 1018.2 |
| 20260503050921 | 10 | 339 | 3.2 | 8.0 | 0.00 | 0.00 | 0.00 | 78 | 1018.2 |
| 20260503050809 | 10 | 5 | 4.8 | 8.0 | 0.00 | 0.00 | 0.00 | 78 | 1018.2 |
| 20260503050718 | 10 | 34 | 4.8 | 8.0 | 0.00 | 0.00 | 0.00 | 78 | 1018.3 |
| 20260503050625 | 10 | 5 | 4.8 | 6.4 | 0.00 | 0.00 | 0.00 | 78 | 1018.3 |
| 20260503050559 | 10 | 20 | 4.8 | 6.4 | 0.00 | 0.00 | 0.00 | 77 | 1018.2 |
| 20260503050313 | 10 | 17 | 4.8 | 6.4 | 0.00 | 0.00 | 0.00 | 77 | 1018.2 |
| 20260503050242 | 10 | 355 | 3.2 | 6.4 | 0.00 | 0.00 | 0.00 | 77 | 1018.2 |
| 20260503050126 | 10 | 325 | 3.2 | 8.0 | 0.00 | 0.00 | 0.00 | 77 | 1018.2 |
| 20260503050033 | 10 | 360 | 4.8 | 8.0 | 0.00 | 0.00 | 0.00 | 77 | 1018.2 |
| 20260503045941 | 10 | 26 | 4.8 | 8.0 | 0.00 | 0.00 | 0.00 | 77 | 1018.2 |
| 20260503045826 | 10 | 5 | 4.8 | 8.0 | 0.00 | 0.00 | 0.00 | 77 | 1018.2 |
| 20260503045719 | 10 | 355 | 4.8 | 8.0 | 0.00 | 0.00 | 0.00 | 77 | 1018.2 |
| 20260503045627 | 10 | 30 | 4.8 | 8.0 | 0.00 | 0.00 | 0.00 | 77 | 1018.2 |
| 20260503045514 | 10 | 10 | 3.2 | 8.0 | 0.00 | 0.00 | 0.00 | 77 | 1018.2 |
| 20260503045421 | 10 | 355 | 3.2 | 8.0 | 0.00 | 0.00 | 0.00 | 77 | 1018.2 |
| 20260503045327 | 10 | 349 | 4.8 | 8.0 | 0.00 | 0.00 | 0.00 | 76 | 1018.2 |
| 20260503045220 | 10 | 336 | 4.8 | 8.0 | 0.00 | 0.00 | 0.00 | 76 | 1018.2 |
| 20260503045147 | 10 | 337 | 4.8 | 8.0 | 0.00 | 0.00 | 0.00 | 76 | 1018.2 |
| 20260503045057 | 10 | 343 | 3.2 | 6.4 | 0.00 | 0.00 | 0.00 | 76 | 1018.2 |
| 20260503044829 | 10 | 336 | 3.2 | 6.4 | 0.00 | 0.00 | 0.00 | 76 | 1018.1 |
| 20260503044713 | 10 | 355 | 4.8 | 6.4 | 0.00 | 0.00 | 0.00 | 76 | 1018.2 |
| 20260503044624 | 10 | 348 | 4.8 | 6.4 | 0.00 | 0.00 | 0.00 | 76 | 1018.2 |
| 20260503044511 | 10 | 355 | 4.8 | 9.7 | 0.00 | 0.00 | 0.00 | 76 | 1018.2 |
| 20260503044419 | 10 | 5 | 4.8 | 9.7 | 0.00 | 0.00 | 0.00 | 75 | 1018.2 |
| 20260503044345 | 10 | 344 | 4.8 | 9.7 | 0.00 | 0.00 | 0.00 | 75 | 1018.2 |
| 20260503044232 | 10 | 18 | 3.2 | 9.7 | 0.00 | 0.00 | 0.00 | 75 | 1018.2 |
| 20260503044120 | 10 | 347 | 3.2 | 9.7 | 0.00 | 0.00 | 0.00 | 75 | 1018.2 |
| 20260503044011 | 10 | 355 | 3.2 | 9.7 | 0.00 | 0.00 | 0.00 | 75 | 1018.1 |
| 20260503043939 | 10 | 355 | 4.8 | 9.7 | 0.00 | 0.00 | 0.00 | 75 | 1018.2 |
| 20260503043825 | 10 | 321 | 4.8 | 9.7 | 0.00 | 0.00 | 0.00 | 75 | 1018.2 |
| 20260503043713 | 10 | 346 | 4.8 | 9.7 | 0.00 | 0.00 | 0.00 | 75 | 1018.2 |
| 20260503043620 | 10 | 338 | 4.8 | 6.4 | 0.00 | 0.00 | 0.00 | 74 | 1018.2 |
| 20260503043554 | 10 | 348 | 4.8 | 6.4 | 0.00 | 0.00 | 0.00 | 74 | 1018.2 |
| 20260503043327 | 10 | 344 | 3.2 | 4.8 | 0.00 | 0.00 | 0.00 | 74 | 1018.1 |
| 20260503043214 | 10 | 5 | 3.2 | 4.8 | 0.00 | 0.00 | 0.00 | 74 | 1018.1 |
| 20260503043123 | 10 | 355 | 3.2 | 4.8 | 0.00 | 0.00 | 0.00 | 74 | 1018.1 |
| 20260503043030 | 10 | 349 | 3.2 | 6.4 | 0.00 | 0.00 | 0.00 | 74 | 1018.1 |
| 20260503042937 | 10 | 349 | 3.2 | 6.4 | 0.00 | 0.00 | 0.00 | 74 | 1018.1 |
| 20260503042843 | 10 | 339 | 3.2 | 6.4 | 0.00 | 0.00 | 0.00 | 74 | 1018.1 |
| 20260503042712 | 10 | 321 | 3.2 | 6.4 | 0.00 | 0.00 | 0.00 | 74 | 1018.1 |
| 20260503042621 | 10 | 355 | 3.2 | 6.4 | 0.00 | 0.00 | 0.00 | 74 | 1018.1 |
| 20260503042508 | 10 | 355 | 3.2 | 9.7 | 0.00 | 0.00 | 0.00 | 74 | 1018.1 |
| 20260503042415 | 10 | 360 | 3.2 | 9.7 | 0.00 | 0.00 | 0.00 | 74 | 1018.0 |
| 20260503042324 | 10 | 336 | 4.8 | 9.7 | 0.00 | 0.00 | 0.00 | 74 | 1018.0 |
| 20260503042231 | 10 | 355 | 4.8 | 9.7 | 0.00 | 0.00 | 0.00 | 74 | 1018.1 |
| 20260503042121 | 10 | 360 | 3.2 | 9.7 | 0.00 | 0.00 | 0.00 | 74 | 1018.1 |
| 20260503042051 | 10 | 355 | 3.2 | 9.7 | 0.00 | 0.00 | 0.00 | 73 | 1018.0 |
| 20260503041824 | 11 | 360 | 4.8 | 9.7 | 0.00 | 0.00 | 0.00 | 73 | 1018.0 |
| 20260503041711 | 11 | 11 | 4.8 | 9.7 | 0.00 | 0.00 | 0.00 | 73 | 1018.1 |
| 20260503041622 | 11 | 339 | 4.8 | 9.7 | 0.00 | 0.00 | 0.00 | 73 | 1018.1 |
| 20260503041509 | 11 | 351 | 4.8 | 6.4 | 0.00 | 0.00 | 0.00 | 73 | 1018.0 |
| 20260503041416 | 11 | 360 | 4.8 | 8.0 | 0.00 | 0.00 | 0.00 | 73 | 1018.1 |
| 20260503041323 | 11 | 15 | 4.8 | 8.0 | 0.00 | 0.00 | 0.00 | 73 | 1018.1 |
| 20260503041211 | 11 | 11 | 4.8 | 8.0 | 0.00 | 0.00 | 0.00 | 73 | 1018.1 |
| 20260503041118 | 11 | 5 | 4.8 | 8.0 | 0.00 | 0.00 | 0.00 | 73 | 1018.0 |
| 20260503041010 | 11 | 348 | 4.8 | 8.0 | 0.00 | 0.00 | 0.00 | 73 | 1018.0 |
| 20260503040919 | 11 | 349 | 4.8 | 8.0 | 0.00 | 0.00 | 0.00 | 73 | 1018.0 |
| 20260503040826 | 11 | 344 | 4.8 | 8.0 | 0.00 | 0.00 | 0.00 | 72 | 1018.0 |
| 20260503040713 | 11 | 355 | 4.8 | 8.0 | 0.00 | 0.00 | 0.00 | 72 | 1018.0 |
| 20260503040556 | 11 | 360 | 4.8 | 8.0 | 0.00 | 0.00 | 0.00 | 72 | 1018.0 |
| 20260503040309 | 11 | 360 | 4.8 | 8.0 | 0.00 | 0.00 | 0.00 | 72 | 1018.0 |
| 20260503040216 | 11 | 347 | 3.2 | 8.0 | 0.00 | 0.00 | 0.00 | 72 | 1017.9 |
| 20260503040122 | 11 | 338 | 3.2 | 8.0 | 0.00 | 0.00 | 0.00 | 72 | 1017.9 |
| 20260503040014 | 11 | 351 | 3.2 | 8.0 | 0.00 | 0.00 | 0.00 | 72 | 1018.0 |
| 20260503035921 | 11 | 340 | 3.2 | 8.0 | 0.00 | 0.00 | 0.00 | 72 | 1018.0 |
| 20260503035809 | 11 | 343 | 4.8 | 8.0 | 0.00 | 0.00 | 0.00 | 71 | 1017.9 |
| 20260503035716 | 11 | 360 | 4.8 | 8.0 | 0.00 | 0.00 | 0.00 | 71 | 1017.9 |
| 20260503035624 | 11 | 9 | 4.8 | 6.4 | 0.00 | 0.00 | 0.00 | 71 | 1017.9 |
| 20260503035510 | 11 | 11 | 3.2 | 6.4 | 0.00 | 0.00 | 0.00 | 71 | 1017.9 |
| 20260503035421 | 11 | 347 | 3.2 | 6.4 | 0.00 | 0.00 | 0.00 | 71 | 1017.9 |
| 20260503035328 | 11 | 5 | 3.2 | 6.4 | 0.00 | 0.00 | 0.00 | 71 | 1018.0 |
| 20260503035215 | 11 | 344 | 3.2 | 6.4 | 0.00 | 0.00 | 0.00 | 71 | 1017.9 |
| 20260503035144 | 11 | 351 | 3.2 | 6.4 | 0.00 | 0.00 | 0.00 | 71 | 1017.9 |
| 20260503035053 | 11 | 351 | 3.2 | 6.4 | 0.00 | 0.00 | 0.00 | 71 | 1017.9 |
| 20260503034810 | 11 | 355 | 4.8 | 8.0 | 0.00 | 0.00 | 0.00 | 71 | 1017.9 |
| 20260503034718 | 11 | 346 | 4.8 | 9.7 | 0.00 | 0.00 | 0.00 | 71 | 1017.9 |
| 20260503034625 | 11 | 326 | 4.8 | 9.7 | 0.00 | 0.00 | 0.00 | 70 | 1017.9 |
| 20260503034513 | 11 | 333 | 4.8 | 9.7 | 0.00 | 0.00 | 0.00 | 70 | 1017.9 |
| 20260503034419 | 11 | 346 | 4.8 | 9.7 | 0.00 | 0.00 | 0.00 | 70 | 1018.0 |
| 20260503034311 | 11 | 355 | 4.8 | 9.7 | 0.00 | 0.00 | 0.00 | 70 | 1017.9 |
| 20260503034219 | 11 | 346 | 4.8 | 9.7 | 0.00 | 0.00 | 0.00 | 70 | 1018.0 |
| 20260503034125 | 11 | 355 | 4.8 | 9.7 | 0.00 | 0.00 | 0.00 | 70 | 1018.0 |
| 20260503034032 | 11 | 355 | 6.4 | 9.7 | 0.00 | 0.00 | 0.00 | 70 | 1017.9 |
| 20260503033918 | 11 | 348 | 6.4 | 9.7 | 0.00 | 0.00 | 0.00 | 70 | 1017.9 |
| 20260503033826 | 11 | 346 | 4.8 | 9.7 | 0.00 | 0.00 | 0.00 | 70 | 1017.9 |
| 20260503033718 | 11 | 5 | 4.8 | 9.7 | 0.00 | 0.00 | 0.00 | 70 | 1017.9 |
| 20260503033626 | 11 | 344 | 4.8 | 8.0 | 0.00 | 0.00 | 0.00 | 69 | 1017.9 |
| 20260503033556 | 11 | 349 | 4.8 | 8.0 | 0.00 | 0.00 | 0.00 | 69 | 1017.8 |
| 20260503033310 | 11 | 5 | 4.8 | 8.0 | 0.00 | 0.00 | 0.00 | 69 | 1017.9 |
| 20260503033237 | 11 | 338 | 4.8 | 8.0 | 0.00 | 0.00 | 0.00 | 69 | 1017.8 |
| 20260503033109 | 11 | 9 | 4.8 | 8.0 | 0.00 | 0.00 | 0.00 | 69 | 1017.8 |
| 20260503033017 | 11 | 330 | 4.8 | 8.0 | 0.00 | 0.00 | 0.00 | 69 | 1017.8 |
| 20260503032926 | 12 | 342 | 4.8 | 8.0 | 0.00 | 0.00 | 0.00 | 69 | 1017.8 |
| 20260503032812 | 12 | 5 | 4.8 | 8.0 | 0.00 | 0.00 | 0.00 | 69 | 1017.9 |
| 20260503032720 | 12 | 343 | 4.8 | 8.0 | 0.00 | 0.00 | 0.00 | 69 | 1017.9 |
| 20260503032611 | 12 | 5 | 4.8 | 8.0 | 0.00 | 0.00 | 0.00 | 68 | 1017.8 |
| 20260503032519 | 12 | 5 | 3.2 | 8.0 | 0.00 | 0.00 | 0.00 | 69 | 1017.8 |
| 20260503032427 | 12 | 340 | 4.8 | 9.7 | 0.00 | 0.00 | 0.00 | 69 | 1017.8 |
| 20260503032314 | 12 | 339 | 6.4 | 14.5 | 0.00 | 0.00 | 0.00 | 68 | 1017.8 |
| 20260503032222 | 12 | 360 | 6.4 | 14.5 | 0.00 | 0.00 | 0.00 | 68 | 1017.8 |
| 20260503032128 | 12 | 355 | 6.4 | 14.5 | 0.00 | 0.00 | 0.00 | 68 | 1017.9 |
| 20260503032103 | 12 | 327 | 6.4 | 14.5 | 0.00 | 0.00 | 0.00 | 68 | 1017.8 |
| 20260503031815 | 12 | 340 | 4.8 | 14.5 | 0.00 | 0.00 | 0.00 | 68 | 1017.8 |
| 20260503031724 | 12 | 350 | 8.0 | 14.5 | 0.00 | 0.00 | 0.00 | 68 | 1017.8 |
| 20260503031610 | 12 | 355 | 8.0 | 14.5 | 0.00 | 0.00 | 0.00 | 68 | 1017.8 |
| 20260503031522 | 12 | 348 | 6.4 | 14.5 | 0.00 | 0.00 | 0.00 | 68 | 1017.8 |
| 20260503031409 | 12 | 355 | 6.4 | 14.5 | 0.00 | 0.00 | 0.00 | 67 | 1017.8 |
| 20260503031317 | 12 | 346 | 6.4 | 14.5 | 0.00 | 0.00 | 0.00 | 67 | 1017.8 |
| 20260503031224 | 12 | 5 | 8.0 | 14.5 | 0.00 | 0.00 | 0.00 | 67 | 1017.8 |
| 20260503031131 | 12 | 340 | 8.0 | 14.5 | 0.00 | 0.00 | 0.00 | 67 | 1017.8 |
| 20260503031037 | 12 | 355 | 8.0 | 14.5 | 0.00 | 0.00 | 0.00 | 67 | 1017.7 |
| 20260503030923 | 12 | 319 | 8.0 | 12.9 | 0.00 | 0.00 | 0.00 | 67 | 1017.7 |
| 20260503030814 | 12 | 347 | 6.4 | 12.9 | 0.00 | 0.00 | 0.00 | 67 | 1017.8 |
| 20260503030723 | 12 | 331 | 4.8 | 12.9 | 0.00 | 0.00 | 0.00 | 67 | 1017.8 |
| 20260503030650 | 12 | 351 | 4.8 | 12.9 | 0.00 | 0.00 | 0.00 | 67 | 1017.8 |
| 20260503030600 | 12 | 342 | 4.8 | 12.9 | 0.00 | 0.00 | 0.00 | 66 | 1017.7 |
| 20260503030334 | 12 | 325 | 6.4 | 12.9 | 0.00 | 0.00 | 0.00 | 66 | 1017.8 |
| 20260503030240 | 12 | 346 | 8.0 | 12.9 | 0.00 | 0.00 | 0.00 | 66 | 1017.7 |
| 20260503030110 | 12 | 339 | 8.0 | 12.9 | 0.00 | 0.00 | 0.00 | 66 | 1017.7 |
| 20260503030037 | 12 | 355 | 6.4 | 12.9 | 0.00 | 0.00 | 0.00 | 66 | 1017.7 |
| 20260503025924 | 12 | 329 | 6.4 | 14.5 | 0.00 | 0.00 | 0.00 | 66 | 1017.7 |
| 20260503025810 | 12 | 360 | 6.4 | 17.7 | 0.00 | 0.00 | 0.00 | 66 | 1017.7 |
| 20260503025718 | 12 | 337 | 8.0 | 17.7 | 0.00 | 0.00 | 0.00 | 66 | 1017.7 |
| 20260503025610 | 12 | 340 | 6.4 | 17.7 | 0.00 | 0.00 | 0.00 | 66 | 1017.7 |
| 20260503025518 | 12 | 13 | 6.4 | 17.7 | 0.00 | 0.00 | 0.00 | 65 | 1017.7 |
| 20260503025425 | 12 | 12 | 6.4 | 17.7 | 0.00 | 0.00 | 0.00 | 66 | 1017.7 |
| 20260503025312 | 12 | 335 | 6.4 | 17.7 | 0.00 | 0.00 | 0.00 | 65 | 1017.7 |
| 20260503025219 | 12 | 355 | 6.4 | 17.7 | 0.00 | 0.00 | 0.00 | 65 | 1017.6 |
| 20260503025124 | 12 | 355 | 8.0 | 17.7 | 0.00 | 0.00 | 0.00 | 65 | 1017.6 |
| 20260503025059 | 12 | 13 | 8.0 | 16.1 | 0.00 | 0.00 | 0.00 | 65 | 1017.6 |
| 20260503024813 | 12 | 342 | 9.7 | 16.1 | 0.00 | 0.00 | 0.00 | 65 | 1017.5 |
| 20260503024740 | 12 | 5 | 11.3 | 16.1 | 0.00 | 0.00 | 0.00 | 65 | 1017.6 |
| 20260503024646 | 12 | 5 | 9.7 | 16.1 | 0.00 | 0.00 | 0.00 | 65 | 1017.6 |
| 20260503024512 | 12 | 36 | 8.0 | 16.1 | 0.00 | 0.00 | 0.00 | 65 | 1017.5 |
| 20260503024419 | 12 | 13 | 9.7 | 16.1 | 0.00 | 0.00 | 0.00 | 64 | 1017.6 |
| 20260503024309 | 12 | 15 | 9.7 | 16.1 | 0.00 | 0.00 | 0.00 | 64 | 1017.5 |
| 20260503024217 | 12 | 5 | 9.7 | 16.1 | 0.00 | 0.00 | 0.00 | 65 | 1017.5 |
| 20260503024126 | 12 | 360 | 9.7 | 16.1 | 0.00 | 0.00 | 0.00 | 64 | 1017.5 |
| 20260503024013 | 12 | 16 | 9.7 | 17.7 | 0.00 | 0.00 | 0.00 | 64 | 1017.6 |
| 20260503023941 | 12 | 360 | 11.3 | 17.7 | 0.00 | 0.00 | 0.00 | 64 | 1017.6 |
| 20260503023812 | 12 | 38 | 9.7 | 17.7 | 0.00 | 0.00 | 0.00 | 64 | 1017.5 |
| 20260503023718 | 13 | 28 | 8.0 | 17.7 | 0.00 | 0.00 | 0.00 | 64 | 1017.5 |
| 20260503023647 | 13 | 345 | 9.7 | 19.3 | 0.00 | 0.00 | 0.00 | 64 | 1017.5 |
| 20260503023617 | 13 | 355 | 12.9 | 19.3 | 0.00 | 0.00 | 0.00 | 64 | 1017.5 |
| 20260503023308 | 13 | 10 | 12.9 | 19.3 | 0.00 | 0.00 | 0.00 | 64 | 1017.4 |
| 20260503023221 | 13 | 5 | 11.3 | 19.3 | 0.00 | 0.00 | 0.00 | 64 | 1017.4 |
| 20260503023110 | 13 | 355 | 9.7 | 19.3 | 0.00 | 0.00 | 0.00 | 64 | 1017.4 |
| 20260503023017 | 13 | 349 | 9.7 | 19.3 | 0.00 | 0.00 | 0.00 | 64 | 1017.4 |
| 20260503022924 | 13 | 355 | 11.3 | 19.3 | 0.00 | 0.00 | 0.00 | 64 | 1017.4 |
| 20260503022812 | 13 | 13 | 11.3 | 19.3 | 0.00 | 0.00 | 0.00 | 64 | 1017.2 |
| 20260503022720 | 13 | 13 | 11.3 | 19.3 | 0.00 | 0.00 | 0.00 | 64 | 1017.2 |
| 20260503022610 | 13 | 355 | 12.9 | 19.3 | 0.00 | 0.00 | 0.00 | 64 | 1017.2 |
| 20260503022519 | 13 | 360 | 12.9 | 19.3 | 0.00 | 0.00 | 0.00 | 64 | 1017.2 |
| 20260503022427 | 13 | 15 | 11.3 | 19.3 | 0.00 | 0.00 | 0.00 | 64 | 1017.2 |
| 20260503022316 | 13 | 360 | 11.3 | 19.3 | 0.00 | 0.00 | 0.00 | 64 | 1017.1 |
| 20260503022223 | 13 | 10 | 11.3 | 19.3 | 0.00 | 0.00 | 0.00 | 64 | 1017.1 |
| 20260503022116 | 13 | 346 | 12.9 | 19.3 | 0.00 | 0.00 | 0.00 | 64 | 1017.2 |
| 20260503022045 | 13 | 5 | 12.9 | 19.3 | 0.00 | 0.00 | 0.00 | 64 | 1017.2 |
| 20260503021818 | 13 | 15 | 12.9 | 19.3 | 0.00 | 0.00 | 0.00 | 64 | 1017.1 |
| 20260503021746 | 13 | 5 | 11.3 | 22.5 | 0.00 | 0.00 | 0.00 | 64 | 1017.1 |
| 20260503021611 | 13 | 11 | 12.9 | 24.1 | 0.00 | 0.00 | 0.00 | 64 | 1017.2 |
| 20260503021524 | 13 | 5 | 11.3 | 29.0 | 0.00 | 0.00 | 0.00 | 64 | 1017.2 |
| 20260503021411 | 13 | 360 | 11.3 | 29.0 | 0.00 | 0.00 | 0.00 | 64 | 1017.2 |
| 20260503021320 | 13 | 355 | 12.9 | 29.0 | 0.00 | 0.00 | 0.00 | 63 | 1017.2 |
| 20260503021227 | 13 | 5 | 12.9 | 29.0 | 0.00 | 0.00 | 0.00 | 63 | 1017.1 |
| 20260503021115 | 13 | 25 | 12.9 | 29.0 | 0.00 | 0.00 | 0.00 | 63 | 1017.1 |
| 20260503021027 | 13 | 360 | 14.5 | 29.0 | 0.00 | 0.00 | 0.00 | 63 | 1017.1 |
| 20260503020934 | 13 | 15 | 16.1 | 29.0 | 0.00 | 0.00 | 0.00 | 63 | 1017.0 |
| 20260503020821 | 13 | 21 | 19.3 | 29.0 | 0.00 | 0.00 | 0.00 | 63 | 1017.0 |
| 20260503020728 | 13 | 360 | 16.1 | 29.0 | 0.00 | 0.00 | 0.00 | 63 | 1017.0 |
| 20260503020636 | 13 | 351 | 12.9 | 25.7 | 0.00 | 0.00 | 0.00 | 63 | 1017.0 |
| 20260503020549 | 13 | 338 | 11.3 | 25.7 | 0.00 | 0.00 | 0.00 | 62 | 1017.0 |
| 20260503020341 | 13 | 360 | 11.3 | 25.7 | 0.00 | 0.00 | 0.00 | 62 | 1017.0 |
| 20260503020227 | 13 | 355 | 14.5 | 25.7 | 0.00 | 0.00 | 0.00 | 62 | 1017.0 |
| 20260503020114 | 13 | 346 | 16.1 | 25.7 | 0.00 | 0.00 | 0.00 | 62 | 1016.9 |
| 20260503020021 | 13 | 333 | 16.1 | 27.4 | 0.00 | 0.00 | 0.00 | 61 | 1016.9 |
| 20260503015908 | 13 | 360 | 17.7 | 27.4 | 0.00 | 0.00 | 0.00 | 61 | 1016.9 |
| 20260503015821 | 13 | 355 | 16.1 | 27.4 | 0.00 | 0.00 | 0.00 | 61 | 1016.9 |
| 20260503015729 | 13 | 13 | 16.1 | 27.4 | 0.00 | 0.00 | 0.00 | 61 | 1016.9 |
| 20260503015615 | 13 | 12 | 16.1 | 27.4 | 0.00 | 0.00 | 0.00 | 60 | 1016.8 |
| 20260503015542 | 13 | 360 | 16.1 | 27.4 | 0.00 | 0.00 | 0.00 | 60 | 1016.8 |
| 20260503015408 | 14 | 348 | 16.1 | 27.4 | 0.00 | 0.00 | 0.00 | 60 | 1016.8 |
| 20260503015317 | 14 | 9 | 17.7 | 27.4 | 0.00 | 0.00 | 0.00 | 60 | 1016.7 |
| 20260503015228 | 14 | 350 | 14.5 | 27.4 | 0.00 | 0.00 | 0.00 | 59 | 1016.7 |
| 20260503015136 | 14 | 5 | 8.0 | 17.7 | 0.00 | 0.00 | 0.00 | 59 | 1016.6 |
| 20260503015044 | 14 | 324 | 6.4 | 9.7 | 0.00 | 0.00 | 0.00 | 59 | 1016.6 |
| 20260503014816 | 14 | 346 | 6.4 | 9.7 | 0.00 | 0.00 | 0.00 | 58 | 1016.4 |
| 20260503014724 | 14 | 360 | 6.4 | 8.0 | 0.00 | 0.00 | 0.00 | 58 | 1016.4 |
| 20260503014635 | 14 | 321 | 4.8 | 6.4 | 0.00 | 0.00 | 0.00 | 58 | 1016.3 |
| 20260503014520 | 14 | 331 | 4.8 | 6.4 | 0.00 | 0.00 | 0.00 | 58 | 1016.3 |
| 20260503014428 | 14 | 325 | 3.2 | 6.4 | 0.00 | 0.00 | 0.00 | 58 | 1016.3 |
| 20260503014315 | 14 | 313 | 3.2 | 6.4 | 0.00 | 0.00 | 0.00 | 58 | 1016.3 |
| 20260503014223 | 14 | 315 | 3.2 | 6.4 | 0.00 | 0.00 | 0.00 | 58 | 1016.3 |
| 20260503014110 | 14 | 311 | 3.2 | 4.8 | 0.00 | 0.00 | 0.00 | 57 | 1016.2 |
| 20260503014021 | 14 | 313 | 3.2 | 4.8 | 0.00 | 0.00 | 0.00 | 57 | 1016.2 |
| 20260503013909 | 14 | 339 | 3.2 | 4.8 | 0.00 | 0.00 | 0.00 | 57 | 1016.2 |
| 20260503013835 | 14 | 342 | 3.2 | 4.8 | 0.00 | 0.00 | 0.00 | 57 | 1016.2 |
| 20260503013721 | 14 | 340 | 3.2 | 4.8 | 0.00 | 0.00 | 0.00 | 56 | 1016.2 |
| 20260503013630 | 15 | 350 | 3.2 | 4.8 | 0.00 | 0.00 | 0.00 | 56 | 1016.1 |
| 20260503013545 | 14 | 334 | 3.2 | 4.8 | 0.00 | 0.00 | 0.00 | 56 | 1016.1 |
| 20260503013320 | 15 | 355 | 3.2 | 4.8 | 0.00 | 0.00 | 0.00 | 56 | 1016.0 |
| 20260503013247 | 15 | 346 | 3.2 | 4.8 | 0.00 | 0.00 | 0.00 | 56 | 1016.0 |
| 20260503013115 | 15 | 331 | 1.6 | 4.8 | 0.00 | 0.00 | 0.00 | 56 | 1016.0 |
| 20260503013023 | 15 | 334 | 3.2 | 4.8 | 0.00 | 0.00 | 0.00 | 55 | 1016.0 |
| 20260503012911 | 15 | 327 | 1.6 | 4.8 | 0.00 | 0.00 | 0.00 | 55 | 1016.0 |
| 20260503012823 | 15 | 327 | 3.2 | 4.8 | 0.00 | 0.00 | 0.00 | 55 | 1016.0 |
| 20260503012710 | 15 | 338 | 3.2 | 6.4 | 0.00 | 0.00 | 0.00 | 55 | 1015.9 |
| 20260503012619 | 15 | 344 | 3.2 | 6.4 | 0.00 | 0.00 | 0.00 | 55 | 1015.9 |
| 20260503012527 | 15 | 329 | 3.2 | 6.4 | 0.00 | 0.00 | 0.00 | 55 | 1015.9 |
| 20260503012434 | 15 | 332 | 3.2 | 6.4 | 0.00 | 0.00 | 0.00 | 54 | 1015.9 |
| 20260503012320 | 15 | 323 | 3.2 | 8.0 | 0.00 | 0.00 | 0.00 | 54 | 1015.9 |
| 20260503012210 | 15 | 342 | 4.8 | 8.0 | 0.00 | 0.00 | 0.00 | 54 | 1015.9 |
| 20260503012118 | 15 | 340 | 4.8 | 8.0 | 0.00 | 0.00 | 0.00 | 54 | 1015.9 |
| 20260503012048 | 15 | 340 | 4.8 | 8.0 | 0.00 | 0.00 | 0.00 | 54 | 1015.9 |
| 20260503011821 | 15 | 332 | 3.2 | 8.0 | 0.00 | 0.00 | 0.00 | 54 | 1015.9 |
| 20260503011713 | 15 | 341 | 3.2 | 8.0 | 0.00 | 0.00 | 0.00 | 54 | 1015.8 |
| 20260503011622 | 15 | 349 | 4.8 | 8.0 | 0.00 | 0.00 | 0.00 | 53 | 1015.8 |
| 20260503011509 | 15 | 350 | 4.8 | 8.0 | 0.00 | 0.00 | 0.00 | 53 | 1015.9 |
| 20260503011437 | 15 | 351 | 4.8 | 8.0 | 0.00 | 0.00 | 0.00 | 53 | 1015.9 |
| 20260503011324 | 15 | 339 | 4.8 | 8.0 | 0.00 | 0.00 | 0.00 | 53 | 1015.9 |
| 20260503011212 | 15 | 334 | 4.8 | 8.0 | 0.00 | 0.00 | 0.00 | 52 | 1015.7 |
| 20260503011140 | 15 | 346 | 4.8 | 8.0 | 0.00 | 0.00 | 0.00 | 52 | 1015.9 |
| 20260503011009 | 15 | 336 | 3.2 | 8.0 | 0.00 | 0.00 | 0.00 | 52 | 1015.7 |
| 20260503010917 | 15 | 347 | 4.8 | 8.0 | 0.00 | 0.00 | 0.00 | 52 | 1015.7 |
| 20260503010824 | 15 | 327 | 4.8 | 8.0 | 0.00 | 0.00 | 0.00 | 52 | 1015.7 |
| 20260503010711 | 15 | 351 | 4.8 | 8.0 | 0.00 | 0.00 | 0.00 | 52 | 1015.6 |
| 20260503010619 | 15 | 5 | 4.8 | 9.7 | 0.00 | 0.00 | 0.00 | 52 | 1015.6 |
| 20260503010553 | 15 | 5 | 4.8 | 12.9 | 0.00 | 0.00 | 0.00 | 51 | 1015.6 |
| 20260503010346 | 16 | 337 | 4.8 | 14.5 | 0.00 | 0.00 | 0.00 | 52 | 1015.6 |
| 20260503010212 | 16 | 5 | 6.4 | 14.5 | 0.00 | 0.00 | 0.00 | 51 | 1015.6 |
| 20260503010141 | 16 | 349 | 6.4 | 14.5 | 0.00 | 0.00 | 0.00 | 51 | 1015.6 |
| 20260503010027 | 16 | 326 | 6.4 | 14.5 | 0.00 | 0.00 | 0.00 | 51 | 1015.6 |
| 20260503005934 | 16 | 347 | 6.4 | 14.5 | 0.00 | 0.00 | 0.00 | 51 | 1015.6 |
| 20260503005845 | 16 | 342 | 8.0 | 14.5 | 0.00 | 0.00 | 0.00 | 50 | 1015.6 |
| 20260503005711 | 16 | 29 | 9.7 | 16.1 | 0.00 | 0.00 | 0.00 | 50 | 1015.6 |
| 20260503005620 | 16 | 333 | 9.7 | 16.1 | 0.00 | 0.00 | 0.00 | 50 | 1015.6 |
| 20260503005527 | 16 | 344 | 8.0 | 16.1 | 0.00 | 0.00 | 0.00 | 50 | 1015.5 |
| 20260503005414 | 16 | 317 | 6.4 | 16.1 | 0.00 | 0.00 | 0.00 | 50 | 1015.6 |
| 20260503005321 | 16 | 331 | 8.0 | 17.7 | 0.00 | 0.00 | 0.00 | 49 | 1015.6 |
| 20260503005212 | 16 | 342 | 9.7 | 17.7 | 0.00 | 0.00 | 0.00 | 49 | 1015.5 |
| 20260503005119 | 16 | 335 | 11.3 | 17.7 | 0.00 | 0.00 | 0.00 | 49 | 1015.6 |
| 20260503005049 | 16 | 343 | 11.3 | 20.9 | 0.00 | 0.00 | 0.00 | 49 | 1015.6 |
| 20260503004824 | 16 | 346 | 12.9 | 20.9 | 0.00 | 0.00 | 0.00 | 49 | 1015.5 |
| 20260503004714 | 16 | 335 | 12.9 | 20.9 | 0.00 | 0.00 | 0.00 | 48 | 1015.5 |
| 20260503004641 | 16 | 341 | 12.9 | 20.9 | 0.00 | 0.00 | 0.00 | 48 | 1015.5 |
| 20260503004509 | 16 | 355 | 11.3 | 24.1 | 0.00 | 0.00 | 0.00 | 48 | 1015.5 |
| 20260503004416 | 16 | 350 | 9.7 | 24.1 | 0.00 | 0.00 | 0.00 | 48 | 1015.4 |
| 20260503004324 | 16 | 345 | 11.3 | 24.1 | 0.00 | 0.00 | 0.00 | 47 | 1015.4 |
| 20260503004213 | 16 | 339 | 14.5 | 24.1 | 0.00 | 0.00 | 0.00 | 47 | 1015.5 |
| 20260503004123 | 17 | 329 | 12.9 | 24.1 | 0.00 | 0.00 | 0.00 | 47 | 1015.5 |
| 20260503004012 | 17 | 346 | 11.3 | 24.1 | 0.00 | 0.00 | 0.00 | 46 | 1015.5 |
| 20260503003919 | 17 | 9 | 9.7 | 24.1 | 0.00 | 0.00 | 0.00 | 46 | 1015.4 |
| 20260503003826 | 17 | 355 | 11.3 | 24.1 | 0.00 | 0.00 | 0.00 | 45 | 1015.4 |
| 20260503003715 | 17 | 11 | 11.3 | 24.1 | 0.00 | 0.00 | 0.00 | 45 | 1015.5 |
| 20260503003626 | 17 | 39 | 11.3 | 19.3 | 0.00 | 0.00 | 0.00 | 45 | 1015.5 |
| 20260503003556 | 17 | 5 | 11.3 | 19.3 | 0.00 | 0.00 | 0.00 | 44 | 1015.5 |
| 20260503003310 | 17 | 340 | 12.9 | 19.3 | 0.00 | 0.00 | 0.00 | 44 | 1015.4 |
| 20260503003217 | 17 | 348 | 12.9 | 19.3 | 0.00 | 0.00 | 0.00 | 44 | 1015.4 |
| 20260503003143 | 17 | 347 | 14.5 | 19.3 | 0.00 | 0.00 | 0.00 | 44 | 1015.4 |
| 20260503003012 | 17 | 335 | 9.7 | 19.3 | 0.00 | 0.00 | 0.00 | 43 | 1015.3 |
| 20260503002919 | 17 | 339 | 8.0 | 22.5 | 0.00 | 0.00 | 0.00 | 43 | 1015.2 |
| 20260503002826 | 17 | 322 | 8.0 | 22.5 | 0.00 | 0.00 | 0.00 | 43 | 1015.2 |
| 20260503002713 | 17 | 317 | 8.0 | 22.5 | 0.00 | 0.00 | 0.00 | 43 | 1015.3 |
| 20260503002620 | 17 | 306 | 8.0 | 22.5 | 0.00 | 0.00 | 0.00 | 43 | 1015.3 |
| 20260503002548 | 17 | 331 | 11.3 | 22.5 | 0.00 | 0.00 | 0.00 | 43 | 1015.1 |
| 20260503002417 | 17 | 333 | 11.3 | 22.5 | 0.00 | 0.00 | 0.00 | 43 | 1015.1 |
| 20260503002326 | 17 | 346 | 9.7 | 22.5 | 0.00 | 0.00 | 0.00 | 43 | 1015.1 |
| 20260503002213 | 17 | 355 | 9.7 | 22.5 | 0.00 | 0.00 | 0.00 | 42 | 1015.0 |
| 20260503002120 | 17 | 318 | 11.3 | 22.5 | 0.00 | 0.00 | 0.00 | 42 | 1015.0 |
| 20260503002053 | 17 | 321 | 11.3 | 22.5 | 0.00 | 0.00 | 0.00 | 42 | 1015.1 |
| 20260503001827 | 17 | 281 | 12.9 | 22.5 | 0.00 | 0.00 | 0.00 | 42 | 1015.0 |
| 20260503001734 | 17 | 309 | 14.5 | 22.5 | 0.00 | 0.00 | 0.00 | 42 | 1015.0 |
| 20260503001622 | 17 | 325 | 12.9 | 22.5 | 0.00 | 0.00 | 0.00 | 42 | 1015.0 |
| 20260503001530 | 17 | 309 | 11.3 | 22.5 | 0.00 | 0.00 | 0.00 | 42 | 1015.0 |
| 20260503001417 | 17 | 316 | 12.9 | 20.9 | 0.00 | 0.00 | 0.00 | 42 | 1015.0 |
| 20260503001344 | 17 | 269 | 12.9 | 20.9 | 0.00 | 0.00 | 0.00 | 42 | 1015.0 |
| 20260503001214 | 17 | 355 | 8.0 | 19.3 | 0.00 | 0.00 | 0.00 | 42 | 1014.9 |
| 20260503001122 | 17 | 336 | 8.0 | 19.3 | 0.00 | 0.00 | 0.00 | 42 | 1014.9 |
| 20260503001029 | 17 | 340 | 9.7 | 19.3 | 0.00 | 0.00 | 0.00 | 42 | 1014.9 |
| 20260503000936 | 17 | 344 | 8.0 | 19.3 | 0.00 | 0.00 | 0.00 | 42 | 1014.9 |
| 20260503000822 | 17 | 271 | 8.0 | 19.3 | 0.00 | 0.00 | 0.00 | 42 | 1014.9 |
| 20260503000749 | 17 | 298 | 8.0 | 14.5 | 0.00 | 0.00 | 0.00 | 42 | 1014.9 |
| 20260503000616 | 17 | 317 | 8.0 | 16.1 | 0.00 | 0.00 | 0.00 | 42 | 1014.8 |
| 20260503000550 | 18 | 327 | 8.0 | 16.1 | 0.00 | 0.00 | 0.00 | 42 | 1014.8 |
| 20260503000323 | 18 | 292 | 9.7 | 17.7 | 0.00 | 0.00 | 0.00 | 42 | 1014.9 |
| 20260503000211 | 18 | 320 | 8.0 | 17.7 | 0.00 | 0.00 | 0.00 | 42 | 1014.9 |
| 20260503000118 | 18 | 286 | 6.4 | 20.9 | 0.00 | 0.00 | 0.00 | 42 | 1014.9 |
| 20260503000009 | 18 | 313 | 6.4 | 20.9 | 0.00 | 0.00 | 0.00 | 41 | 1014.8 |
| 20260502235917 | 18 | 323 | 6.4 | 20.9 | 0.00 | 0.00 | 0.00 | 41 | 1014.8 |
| 20260502235844 | 18 | 302 | 6.4 | 20.9 | 0.00 | 0.00 | 0.00 | 41 | 1014.8 |
| 20260502235710 | 18 | 323 | 9.7 | 20.9 | 0.00 | 0.00 | 0.00 | 40 | 1014.8 |
| 20260502235638 | 18 | 320 | 11.3 | 20.9 | 0.00 | 0.00 | 0.00 | 40 | 1014.7 |
| 20260502235525 | 18 | 327 | 9.7 | 20.9 | 0.00 | 0.00 | 0.00 | 40 | 1014.7 |
| 20260502235416 | 18 | 302 | 9.7 | 20.9 | 0.00 | 0.00 | 0.00 | 40 | 1014.8 |
| 20260502235323 | 18 | 343 | 11.3 | 20.9 | 0.00 | 0.00 | 0.00 | 40 | 1014.8 |
| 20260502235211 | 18 | 341 | 11.3 | 20.9 | 0.00 | 0.00 | 0.00 | 40 | 1014.8 |
| 20260502235119 | 18 | 343 | 11.3 | 19.3 | 0.00 | 0.00 | 0.00 | 40 | 1014.8 |
| 20260502235051 | 18 | 328 | 11.3 | 19.3 | 0.00 | 0.00 | 0.00 | 40 | 1014.8 |
| 20260502234827 | 18 | 285 | 12.9 | 19.3 | 0.00 | 0.00 | 0.00 | 39 | 1014.7 |
| 20260502234735 | 18 | 302 | 12.9 | 19.3 | 0.00 | 0.00 | 0.00 | 40 | 1014.7 |
| 20260502234622 | 18 | 294 | 12.9 | 19.3 | 0.00 | 0.00 | 0.00 | 40 | 1014.7 |
| 20260502234509 | 18 | 315 | 14.5 | 19.3 | 0.00 | 0.00 | 0.00 | 40 | 1014.6 |
| 20260502234416 | 18 | 323 | 14.5 | 19.3 | 0.00 | 0.00 | 0.00 | 40 | 1014.6 |
| 20260502234324 | 18 | 317 | 14.5 | 22.5 | 0.00 | 0.00 | 0.00 | 40 | 1014.6 |
| 20260502234216 | 18 | 323 | 12.9 | 22.5 | 0.00 | 0.00 | 0.00 | 40 | 1014.7 |
| 20260502234124 | 18 | 321 | 11.3 | 22.5 | 0.00 | 0.00 | 0.00 | 40 | 1014.7 |
| 20260502234012 | 18 | 312 | 9.7 | 22.5 | 0.00 | 0.00 | 0.00 | 40 | 1014.6 |
| 20260502233919 | 18 | 336 | 9.7 | 22.5 | 0.00 | 0.00 | 0.00 | 40 | 1014.6 |
| 20260502233827 | 18 | 331 | 9.7 | 22.5 | 0.00 | 0.00 | 0.00 | 40 | 1014.6 |
| 20260502233719 | 18 | 320 | 11.3 | 22.5 | 0.00 | 0.00 | 0.00 | 40 | 1014.6 |
| 20260502233626 | 18 | 313 | 12.9 | 22.5 | 0.00 | 0.00 | 0.00 | 40 | 1014.6 |
| 20260502233556 | 18 | 299 | 12.9 | 20.9 | 0.00 | 0.00 | 0.00 | 40 | 1014.5 |
| 20260502233310 | 18 | 314 | 9.7 | 20.9 | 0.00 | 0.00 | 0.00 | 40 | 1014.6 |
| 20260502233220 | 18 | 292 | 9.7 | 20.9 | 0.00 | 0.00 | 0.00 | 40 | 1014.6 |
| 20260502233127 | 18 | 307 | 11.3 | 20.9 | 0.00 | 0.00 | 0.00 | 41 | 1014.6 |
| 20260502233015 | 18 | 317 | 14.5 | 20.9 | 0.00 | 0.00 | 0.00 | 40 | 1014.5 |
| 20260502232922 | 18 | 311 | 12.9 | 20.9 | 0.00 | 0.00 | 0.00 | 40 | 1014.5 |
| 20260502232809 | 18 | 325 | 11.3 | 17.7 | 0.00 | 0.00 | 0.00 | 41 | 1014.6 |
| 20260502232718 | 18 | 319 | 11.3 | 17.7 | 0.00 | 0.00 | 0.00 | 40 | 1014.5 |
| 20260502232610 | 18 | 321 | 11.3 | 17.7 | 0.00 | 0.00 | 0.00 | 40 | 1014.5 |
| 20260502232517 | 18 | 275 | 12.9 | 17.7 | 0.00 | 0.00 | 0.00 | 40 | 1014.5 |
| 20260502232445 | 18 | 324 | 9.7 | 17.7 | 0.00 | 0.00 | 0.00 | 41 | 1014.5 |
| 20260502232310 | 18 | 312 | 8.0 | 17.7 | 0.00 | 0.00 | 0.00 | 40 | 1014.5 |
| 20260502232217 | 18 | 327 | 8.0 | 17.7 | 0.00 | 0.00 | 0.00 | 40 | 1014.4 |
| 20260502232123 | 18 | 288 | 9.7 | 17.7 | 0.00 | 0.00 | 0.00 | 40 | 1014.4 |
| 20260502232058 | 18 | 315 | 8.0 | 17.7 | 0.00 | 0.00 | 0.00 | 40 | 1014.4 |
| 20260502231812 | 18 | 317 | 6.4 | 19.3 | 0.00 | 0.00 | 0.00 | 40 | 1014.3 |
| 20260502231720 | 18 | 315 | 8.0 | 19.3 | 0.00 | 0.00 | 0.00 | 39 | 1014.3 |
| 20260502231627 | 18 | 300 | 9.7 | 19.3 | 0.00 | 0.00 | 0.00 | 39 | 1014.4 |
| 20260502231518 | 18 | 284 | 9.7 | 19.3 | 0.00 | 0.00 | 0.00 | 39 | 1014.5 |
| 20260502231424 | 18 | 302 | 9.7 | 19.3 | 0.00 | 0.00 | 0.00 | 40 | 1014.5 |
| 20260502231330 | 18 | 307 | 8.0 | 19.3 | 0.00 | 0.00 | 0.00 | 39 | 1014.5 |
| 20260502231235 | 18 | 329 | 11.3 | 19.3 | 0.00 | 0.00 | 0.00 | 39 | 1014.5 |
| 20260502231121 | 18 | 332 | 12.9 | 19.3 | 0.00 | 0.00 | 0.00 | 38 | 1014.5 |
| 20260502231010 | 18 | 338 | 12.9 | 19.3 | 0.00 | 0.00 | 0.00 | 38 | 1014.4 |
| 20260502230922 | 19 | 325 | 11.3 | 19.3 | 0.00 | 0.00 | 0.00 | 38 | 1014.4 |
| 20260502230848 | 19 | 286 | 8.0 | 17.7 | 0.00 | 0.00 | 0.00 | 39 | 1014.4 |
| 20260502230715 | 19 | 300 | 6.4 | 17.7 | 0.00 | 0.00 | 0.00 | 38 | 1014.5 |
| 20260502230623 | 19 | 344 | 6.4 | 17.7 | 0.00 | 0.00 | 0.00 | 38 | 1014.5 |
| 20260502230554 | 19 | 342 | 6.4 | 17.7 | 0.00 | 0.00 | 0.00 | 38 | 1014.5 |
| 20260502230332 | 19 | 355 | 9.7 | 17.7 | 0.00 | 0.00 | 0.00 | 37 | 1014.4 |
| 20260502230219 | 19 | 303 | 12.9 | 17.7 | 0.00 | 0.00 | 0.00 | 36 | 1014.4 |
| 20260502230147 | 19 | 281 | 12.9 | 17.7 | 0.00 | 0.00 | 0.00 | 36 | 1014.4 |
| 20260502230012 | 19 | 302 | 11.3 | 17.7 | 0.00 | 0.00 | 0.00 | 36 | 1014.4 |
| 20260502225920 | 19 | 257 | 11.3 | 16.1 | 0.00 | 0.00 | 0.00 | 36 | 1014.4 |
| 20260502225809 | 20 | 360 | 9.7 | 19.3 | 0.00 | 0.00 | 0.00 | 36 | 1014.5 |
| 20260502225721 | 20 | 297 | 9.7 | 19.3 | 0.00 | 0.00 | 0.00 | 36 | 1014.5 |
| 20260502225628 | 20 | 332 | 9.7 | 19.3 | 0.00 | 0.00 | 0.00 | 36 | 1014.5 |
| 20260502225515 | 20 | 328 | 11.3 | 19.3 | 0.00 | 0.00 | 0.00 | 36 | 1014.5 |
| 20260502225422 | 20 | 318 | 11.3 | 19.3 | 0.00 | 0.00 | 0.00 | 36 | 1014.5 |
| 20260502225309 | 20 | 272 | 8.0 | 19.3 | 0.00 | 0.00 | 0.00 | 36 | 1014.5 |
| 20260502225217 | 20 | 303 | 9.7 | 19.3 | 0.00 | 0.00 | 0.00 | 36 | 1014.5 |
| 20260502225128 | 20 | 307 | 11.3 | 19.3 | 0.00 | 0.00 | 0.00 | 35 | 1014.5 |
| 20260502225058 | 20 | 323 | 11.3 | 20.9 | 0.00 | 0.00 | 0.00 | 35 | 1014.4 |
| 20260502224811 | 20 | 293 | 11.3 | 20.9 | 0.00 | 0.00 | 0.00 | 35 | 1014.4 |
| 20260502224739 | 20 | 286 | 12.9 | 20.9 | 0.00 | 0.00 | 0.00 | 36 | 1014.4 |
| 20260502224610 | 20 | 333 | 11.3 | 20.9 | 0.00 | 0.00 | 0.00 | 35 | 1014.4 |
| 20260502224517 | 20 | 355 | 9.7 | 20.9 | 0.00 | 0.00 | 0.00 | 35 | 1014.4 |
| 20260502224425 | 20 | 317 | 11.3 | 20.9 | 0.00 | 0.00 | 0.00 | 35 | 1014.4 |
| 20260502224311 | 20 | 323 | 14.5 | 25.7 | 0.00 | 0.00 | 0.00 | 34 | 1014.5 |
| 20260502224219 | 20 | 306 | 12.9 | 25.7 | 0.00 | 0.00 | 0.00 | 35 | 1014.4 |
| 20260502224126 | 20 | 344 | 9.7 | 25.7 | 0.00 | 0.00 | 0.00 | 36 | 1014.4 |
| 20260502224016 | 20 | 324 | 6.4 | 25.7 | 0.00 | 0.00 | 0.00 | 35 | 1014.4 |
| 20260502223924 | 20 | 286 | 6.4 | 25.7 | 0.00 | 0.00 | 0.00 | 35 | 1014.4 |
| 20260502223811 | 20 | 360 | 8.0 | 25.7 | 0.00 | 0.00 | 0.00 | 35 | 1014.3 |
| 20260502223719 | 20 | 311 | 12.9 | 25.7 | 0.00 | 0.00 | 0.00 | 35 | 1014.3 |
| 20260502223648 | 20 | 272 | 16.1 | 25.7 | 0.00 | 0.00 | 0.00 | 35 | 1014.3 |
| 20260502223601 | 20 | 271 | 17.7 | 25.7 | 0.00 | 0.00 | 0.00 | 35 | 1014.3 |
| 20260502223314 | 20 | 340 | 14.5 | 24.1 | 0.00 | 0.00 | 0.00 | 35 | 1014.3 |
| 20260502223222 | 20 | 326 | 14.5 | 24.1 | 0.00 | 0.00 | 0.00 | 35 | 1014.3 |
| 20260502223109 | 20 | 326 | 14.5 | 24.1 | 0.00 | 0.00 | 0.00 | 34 | 1014.3 |
| 20260502223016 | 20 | 345 | 14.5 | 24.1 | 0.00 | 0.00 | 0.00 | 34 | 1014.4 |
| 20260502222923 | 20 | 333 | 12.9 | 24.1 | 0.00 | 0.00 | 0.00 | 35 | 1014.4 |
| 20260502222814 | 20 | 316 | 12.9 | 24.1 | 0.00 | 0.00 | 0.00 | 35 | 1014.3 |
| 20260502222720 | 20 | 313 | 16.1 | 24.1 | 0.00 | 0.00 | 0.00 | 35 | 1014.3 |
| 20260502222627 | 20 | 322 | 17.7 | 24.1 | 0.00 | 0.00 | 0.00 | 35 | 1014.4 |
| 20260502222514 | 20 | 317 | 16.1 | 24.1 | 0.00 | 0.00 | 0.00 | 35 | 1014.3 |
| 20260502222421 | 20 | 277 | 14.5 | 24.1 | 0.00 | 0.00 | 0.00 | 35 | 1014.3 |
| 20260502222333 | 20 | 300 | 14.5 | 24.1 | 0.00 | 0.00 | 0.00 | 35 | 1014.3 |
| 20260502222219 | 20 | 249 | 14.5 | 24.1 | 0.00 | 0.00 | 0.00 | 35 | 1014.2 |
| 20260502222146 | 20 | 271 | 12.9 | 22.5 | 0.00 | 0.00 | 0.00 | 36 | 1014.2 |
| 20260502222055 | 20 | 294 | 11.3 | 22.5 | 0.00 | 0.00 | 0.00 | 36 | 1014.3 |
| 20260502221808 | 20 | 250 | 11.3 | 22.5 | 0.00 | 0.00 | 0.00 | 36 | 1014.3 |
| 20260502221719 | 20 | 300 | 12.9 | 22.5 | 0.00 | 0.00 | 0.00 | 35 | 1014.4 |
| 20260502221626 | 20 | 302 | 9.7 | 22.5 | 0.00 | 0.00 | 0.00 | 36 | 1014.4 |
| 20260502221513 | 20 | 338 | 9.7 | 22.5 | 0.00 | 0.00 | 0.00 | 36 | 1014.4 |
| 20260502221419 | 20 | 264 | 11.3 | 25.7 | 0.00 | 0.00 | 0.00 | 36 | 1014.4 |
| 20260502221327 | 20 | 288 | 12.9 | 25.7 | 0.00 | 0.00 | 0.00 | 35 | 1014.3 |
| 20260502221213 | 20 | 304 | 12.9 | 25.7 | 0.00 | 0.00 | 0.00 | 35 | 1014.3 |
| 20260502221124 | 20 | 285 | 14.5 | 30.6 | 0.00 | 0.00 | 0.00 | 35 | 1014.3 |
| 20260502221011 | 20 | 311 | 14.5 | 30.6 | 0.00 | 0.00 | 0.00 | 35 | 1014.4 |
| 20260502220918 | 20 | 297 | 11.3 | 30.6 | 0.00 | 0.00 | 0.00 | 35 | 1014.3 |
| 20260502220825 | 20 | 302 | 11.3 | 30.6 | 0.00 | 0.00 | 0.00 | 35 | 1014.3 |
| 20260502220712 | 20 | 310 | 14.5 | 30.6 | 0.00 | 0.00 | 0.00 | 35 | 1014.4 |
| 20260502220620 | 20 | 324 | 14.5 | 30.6 | 0.00 | 0.00 | 0.00 | 35 | 1014.4 |
| 20260502220554 | 21 | 306 | 16.1 | 30.6 | 0.00 | 0.00 | 0.00 | 35 | 1014.3 |
| 20260502220327 | 21 | 334 | 16.1 | 30.6 | 0.00 | 0.00 | 0.00 | 35 | 1014.3 |
| 20260502220234 | 21 | 348 | 14.5 | 24.1 | 0.00 | 0.00 | 0.00 | 34 | 1014.3 |
| 20260502220120 | 20 | 310 | 11.3 | 24.1 | 0.00 | 0.00 | 0.00 | 35 | 1014.3 |
| 20260502220011 | 20 | 284 | 9.7 | 24.1 | 0.00 | 0.00 | 0.00 | 36 | 1014.3 |
| 20260502215920 | 20 | 321 | 12.9 | 24.1 | 0.00 | 0.00 | 0.00 | 36 | 1014.3 |
| 20260502215826 | 20 | 5 | 11.3 | 24.1 | 0.00 | 0.00 | 0.00 | 35 | 1014.2 |
| 20260502215715 | 20 | 320 | 11.3 | 24.1 | 0.00 | 0.00 | 0.00 | 35 | 1014.3 |
| 20260502215623 | 20 | 293 | 12.9 | 24.1 | 0.00 | 0.00 | 0.00 | 34 | 1014.3 |
| 20260502215531 | 20 | 271 | 11.3 | 24.1 | 0.00 | 0.00 | 0.00 | 36 | 1014.3 |
| 20260502215436 | 20 | 347 | 8.0 | 22.5 | 0.00 | 0.00 | 0.00 | 35 | 1014.2 |
| 20260502215328 | 20 | 286 | 8.0 | 22.5 | 0.00 | 0.00 | 0.00 | 36 | 1014.2 |
| 20260502215235 | 20 | 311 | 8.0 | 22.5 | 0.00 | 0.00 | 0.00 | 36 | 1014.3 |
| 20260502215203 | 20 | 308 | 11.3 | 22.5 | 0.00 | 0.00 | 0.00 | 36 | 1014.2 |
| 20260502215112 | 20 | 290 | 12.9 | 22.5 | 0.00 | 0.00 | 0.00 | 36 | 1014.3 |
| 20260502214825 | 20 | 329 | 16.1 | 22.5 | 0.00 | 0.00 | 0.00 | 37 | 1014.3 |
| 20260502214715 | 20 | 331 | 16.1 | 22.5 | 0.00 | 0.00 | 0.00 | 37 | 1014.2 |
| 20260502214623 | 20 | 5 | 11.3 | 20.9 | 0.00 | 0.00 | 0.00 | 36 | 1014.2 |
| 20260502214529 | 20 | 316 | 12.9 | 20.9 | 0.00 | 0.00 | 0.00 | 37 | 1014.1 |
| 20260502214416 | 20 | 331 | 16.1 | 20.9 | 0.00 | 0.00 | 0.00 | 37 | 1014.2 |
| 20260502214323 | 20 | 340 | 16.1 | 20.9 | 0.00 | 0.00 | 0.00 | 36 | 1014.2 |
| 20260502214210 | 20 | 335 | 16.1 | 25.7 | 0.00 | 0.00 | 0.00 | 36 | 1014.1 |
| 20260502214120 | 20 | 318 | 12.9 | 25.7 | 0.00 | 0.00 | 0.00 | 37 | 1014.1 |
| 20260502214027 | 20 | 317 | 9.7 | 25.7 | 0.00 | 0.00 | 0.00 | 37 | 1014.1 |
| 20260502213934 | 20 | 337 | 9.7 | 25.7 | 0.00 | 0.00 | 0.00 | 38 | 1014.1 |
| 20260502213820 | 20 | 323 | 11.3 | 25.7 | 0.00 | 0.00 | 0.00 | 37 | 1014.1 |
| 20260502213748 | 20 | 344 | 14.5 | 25.7 | 0.00 | 0.00 | 0.00 | 37 | 1014.2 |
| 20260502213615 | 20 | 316 | 16.1 | 25.7 | 0.00 | 0.00 | 0.00 | 36 | 1014.1 |
| 20260502213550 | 20 | 314 | 17.7 | 25.7 | 0.00 | 0.00 | 0.00 | 36 | 1014.1 |
| 20260502213324 | 20 | 360 | 16.1 | 25.7 | 0.00 | 0.00 | 0.00 | 35 | 1014.1 |
| 20260502213211 | 20 | 300 | 16.1 | 25.7 | 0.00 | 0.00 | 0.00 | 36 | 1014.1 |
| 20260502213140 | 20 | 301 | 17.7 | 25.7 | 0.00 | 0.00 | 0.00 | 36 | 1014.1 |
| 20260502213025 | 20 | 341 | 17.7 | 25.7 | 0.00 | 0.00 | 0.00 | 36 | 1014.1 |
| 20260502212918 | 20 | 291 | 11.3 | 22.5 | 0.00 | 0.00 | 0.00 | 35 | 1014.0 |
| 20260502212825 | 20 | 360 | 9.7 | 22.5 | 0.00 | 0.00 | 0.00 | 35 | 1014.0 |
| 20260502212711 | 21 | 360 | 12.9 | 24.1 | 0.00 | 0.00 | 0.00 | 35 | 1014.0 |
| 20260502212619 | 21 | 313 | 11.3 | 24.1 | 0.00 | 0.00 | 0.00 | 35 | 1014.0 |
| 20260502212528 | 21 | 271 | 8.0 | 24.1 | 0.00 | 0.00 | 0.00 | 36 | 1014.0 |
| 20260502212435 | 21 | 234 | 8.0 | 24.1 | 0.00 | 0.00 | 0.00 | 36 | 1014.0 |
| 20260502212325 | 21 | 245 | 11.3 | 24.1 | 0.00 | 0.00 | 0.00 | 36 | 1014.0 |
| 20260502212212 | 21 | 331 | 16.1 | 24.1 | 0.00 | 0.00 | 0.00 | 37 | 1014.0 |
| 20260502212120 | 21 | 5 | 17.7 | 24.1 | 0.00 | 0.00 | 0.00 | 36 | 1014.0 |
| 20260502212050 | 21 | 360 | 17.7 | 25.7 | 0.00 | 0.00 | 0.00 | 36 | 1014.0 |
| 20260502211828 | 20 | 309 | 16.1 | 25.7 | 0.00 | 0.00 | 0.00 | 36 | 1014.1 |
| 20260502211715 | 20 | 338 | 16.1 | 25.7 | 0.00 | 0.00 | 0.00 | 35 | 1014.1 |
| 20260502211623 | 20 | 308 | 16.1 | 25.7 | 0.00 | 0.00 | 0.00 | 35 | 1014.1 |
| 20260502211512 | 20 | 337 | 16.1 | 25.7 | 0.00 | 0.00 | 0.00 | 35 | 1014.1 |
| 20260502211419 | 20 | 329 | 19.3 | 25.7 | 0.00 | 0.00 | 0.00 | 35 | 1014.2 |
| 20260502211310 | 20 | 355 | 17.7 | 25.7 | 0.00 | 0.00 | 0.00 | 35 | 1014.2 |
| 20260502211217 | 20 | 351 | 16.1 | 25.7 | 0.00 | 0.00 | 0.00 | 35 | 1014.2 |
| 20260502211122 | 20 | 290 | 16.1 | 25.7 | 0.00 | 0.00 | 0.00 | 36 | 1014.2 |
| 20260502211009 | 20 | 338 | 17.7 | 25.7 | 0.00 | 0.00 | 0.00 | 37 | 1014.2 |
| 20260502210917 | 20 | 328 | 17.7 | 25.7 | 0.00 | 0.00 | 0.00 | 38 | 1014.3 |
| 20260502210825 | 20 | 309 | 16.1 | 24.1 | 0.00 | 0.00 | 0.00 | 38 | 1014.3 |
| 20260502210716 | 20 | 21 | 16.1 | 24.1 | 0.00 | 0.00 | 0.00 | 38 | 1014.2 |
| 20260502210643 | 20 | 25 | 16.1 | 24.1 | 0.00 | 0.00 | 0.00 | 38 | 1014.2 |
| 20260502210553 | 20 | 355 | 16.1 | 27.4 | 0.00 | 0.00 | 0.00 | 37 | 1014.3 |
| 20260502210346 | 20 | 333 | 16.1 | 27.4 | 0.00 | 0.00 | 0.00 | 37 | 1014.2 |
| 20260502210213 | 20 | 5 | 14.5 | 27.4 | 0.00 | 0.00 | 0.00 | 36 | 1014.2 |
| 20260502210120 | 20 | 336 | 16.1 | 27.4 | 0.00 | 0.00 | 0.00 | 36 | 1014.2 |
| 20260502210031 | 20 | 328 | 16.1 | 27.4 | 0.00 | 0.00 | 0.00 | 37 | 1014.3 |
| 20260502205918 | 20 | 338 | 17.7 | 29.0 | 0.00 | 0.00 | 0.00 | 37 | 1014.2 |
| 20260502205823 | 20 | 310 | 17.7 | 29.0 | 0.00 | 0.00 | 0.00 | 38 | 1014.2 |
| 20260502205711 | 20 | 19 | 17.7 | 29.0 | 0.00 | 0.00 | 0.00 | 38 | 1014.3 |
| 20260502205617 | 20 | 5 | 20.9 | 29.0 | 0.00 | 0.00 | 0.00 | 39 | 1014.3 |
| 20260502205525 | 20 | 342 | 19.3 | 29.0 | 0.00 | 0.00 | 0.00 | 37 | 1014.3 |
| 20260502205437 | 20 | 344 | 17.7 | 29.0 | 0.00 | 0.00 | 0.00 | 36 | 1014.3 |
| 20260502205323 | 20 | 340 | 19.3 | 29.0 | 0.00 | 0.00 | 0.00 | 36 | 1014.3 |
| 20260502205211 | 20 | 19 | 19.3 | 29.0 | 0.00 | 0.00 | 0.00 | 36 | 1014.2 |
| 20260502205119 | 20 | 355 | 19.3 | 27.4 | 0.00 | 0.00 | 0.00 | 36 | 1014.3 |
| 20260502205050 | 20 | 336 | 19.3 | 27.4 | 0.00 | 0.00 | 0.00 | 35 | 1014.3 |
| 20260502204827 | 21 | 331 | 14.5 | 27.4 | 0.00 | 0.00 | 0.00 | 35 | 1014.3 |
| 20260502204715 | 21 | 315 | 11.3 | 27.4 | 0.00 | 0.00 | 0.00 | 35 | 1014.3 |
| 20260502204622 | 21 | 327 | 14.5 | 27.4 | 0.00 | 0.00 | 0.00 | 36 | 1014.3 |
| 20260502204511 | 21 | 273 | 17.7 | 32.2 | 0.00 | 0.00 | 0.00 | 35 | 1014.2 |
| 20260502204418 | 21 | 271 | 17.7 | 32.2 | 0.00 | 0.00 | 0.00 | 35 | 1014.3 |
| 20260502204345 | 21 | 311 | 17.7 | 32.2 | 0.00 | 0.00 | 0.00 | 35 | 1014.3 |
| 20260502204215 | 21 | 333 | 19.3 | 32.2 | 0.00 | 0.00 | 0.00 | 34 | 1014.3 |
| 20260502204143 | 21 | 337 | 17.7 | 32.2 | 0.00 | 0.00 | 0.00 | 34 | 1014.3 |
| 20260502204028 | 21 | 302 | 14.5 | 35.4 | 0.00 | 0.00 | 0.00 | 35 | 1014.3 |
| 20260502203914 | 21 | 297 | 14.5 | 35.4 | 0.00 | 0.00 | 0.00 | 35 | 1014.3 |
| 20260502203842 | 21 | 319 | 19.3 | 35.4 | 0.00 | 0.00 | 0.00 | 34 | 1014.3 |
| 20260502203747 | 21 | 308 | 20.9 | 35.4 | 0.00 | 0.00 | 0.00 | 34 | 1014.3 |
| 20260502203613 | 21 | 296 | 19.3 | 35.4 | 0.00 | 0.00 | 0.00 | 35 | 1014.3 |
| 20260502203547 | 21 | 294 | 19.3 | 35.4 | 0.00 | 0.00 | 0.00 | 35 | 1014.3 |
| 20260502203320 | 21 | 346 | 22.5 | 35.4 | 0.00 | 0.00 | 0.00 | 35 | 1014.4 |
| 20260502203226 | 21 | 342 | 22.5 | 35.4 | 0.00 | 0.00 | 0.00 | 34 | 1014.2 |
| 20260502203114 | 21 | 344 | 19.3 | 30.6 | 0.00 | 0.00 | 0.00 | 35 | 1014.3 |
| 20260502203022 | 21 | 35 | 17.7 | 30.6 | 0.00 | 0.00 | 0.00 | 34 | 1014.3 |
| 20260502202913 | 21 | 323 | 12.9 | 27.4 | 0.00 | 0.00 | 0.00 | 33 | 1014.4 |
| 20260502202820 | 21 | 315 | 11.3 | 24.1 | 0.00 | 0.00 | 0.00 | 33 | 1014.4 |
| 20260502202748 | 21 | 313 | 14.5 | 30.6 | 0.00 | 0.00 | 0.00 | 33 | 1014.4 |
| 20260502202613 | 21 | 270 | 14.5 | 30.6 | 0.00 | 0.00 | 0.00 | 34 | 1014.6 |
| 20260502202520 | 21 | 302 | 12.9 | 30.6 | 0.00 | 0.00 | 0.00 | 35 | 1014.6 |
| 20260502202449 | 21 | 317 | 12.9 | 30.6 | 0.00 | 0.00 | 0.00 | 36 | 1014.5 |
| 20260502202339 | 21 | 360 | 14.5 | 30.6 | 0.00 | 0.00 | 0.00 | 37 | 1014.4 |
| 20260502202227 | 21 | 333 | 16.1 | 30.6 | 0.00 | 0.00 | 0.00 | 36 | 1014.4 |
| 20260502202114 | 21 | 325 | 19.3 | 30.6 | 0.00 | 0.00 | 0.00 | 37 | 1014.5 |
| 20260502202043 | 21 | 355 | 17.7 | 30.6 | 0.00 | 0.00 | 0.00 | 36 | 1014.5 |
| 20260502201817 | 21 | 328 | 16.1 | 29.0 | 0.00 | 0.00 | 0.00 | 37 | 1014.5 |
| 20260502201710 | 21 | 317 | 16.1 | 29.0 | 0.00 | 0.00 | 0.00 | 37 | 1014.5 |
| 20260502201617 | 21 | 333 | 17.7 | 29.0 | 0.00 | 0.00 | 0.00 | 35 | 1014.6 |
| 20260502201545 | 20 | 320 | 17.7 | 29.0 | 0.00 | 0.00 | 0.00 | 36 | 1014.6 |
| 20260502201412 | 20 | 334 | 12.9 | 27.4 | 0.00 | 0.00 | 0.00 | 36 | 1014.6 |
| 20260502201340 | 20 | 333 | 12.9 | 27.4 | 0.00 | 0.00 | 0.00 | 35 | 1014.6 |
| 20260502201227 | 20 | 323 | 14.5 | 27.4 | 0.00 | 0.00 | 0.00 | 36 | 1014.6 |
| 20260502201138 | 20 | 350 | 16.1 | 27.4 | 0.00 | 0.00 | 0.00 | 35 | 1014.6 |
| 20260502201024 | 20 | 342 | 16.1 | 27.4 | 0.00 | 0.00 | 0.00 | 35 | 1014.6 |
| 20260502200930 | 21 | 346 | 19.3 | 27.4 | 0.00 | 0.00 | 0.00 | 34 | 1014.6 |
| 20260502200815 | 21 | 320 | 20.9 | 27.4 | 0.00 | 0.00 | 0.00 | 33 | 1014.6 |
| 20260502200722 | 21 | 326 | 19.3 | 27.4 | 0.00 | 0.00 | 0.00 | 34 | 1014.6 |
| 20260502200610 | 21 | 295 | 17.7 | 27.4 | 0.00 | 0.00 | 0.00 | 35 | 1014.5 |
| 20260502200545 | 21 | 323 | 16.1 | 27.4 | 0.00 | 0.00 | 0.00 | 33 | 1014.5 |